| time (UTC) | temp F | wind direction | speed MPH | gust MPH | rain 1hr in | rain 24hr in | rain mn in | humidity % | barometer mb |
| 20260904040303 | 50 | 247 | 0.0 | 2.0 | 0.00 | 0.00 | 0.00 | 68 | 1019.2 |
| 20260904040105 | 50 | 247 | 0.0 | 2.0 | 0.00 | 0.00 | 0.00 | 68 | 1019.3 |
| 20260904040003 | 50 | 247 | 0.0 | 2.0 | 0.00 | 0.00 | 0.00 | 68 | 1019.4 |
| 20260904035803 | 51 | 247 | 2.0 | 2.0 | 0.00 | 0.00 | 0.00 | 68 | 1019.5 |
| 20260904035703 | 51 | 247 | 0.0 | 2.0 | 0.00 | 0.00 | 0.00 | 68 | 1019.3 |
| 20260904035603 | 51 | 247 | 0.0 | 2.0 | 0.00 | 0.00 | 0.00 | 67 | 1019.2 |
| 20260904035403 | 51 | 0 | 0.0 | 0.0 | 0.00 | 0.00 | 0.00 | 67 | 1019.1 |
| 20260904035306 | 51 | 0 | 0.0 | 0.0 | 0.00 | 0.00 | 0.00 | 67 | 1019.5 |
| 20260904035203 | 51 | 0 | 0.0 | 0.0 | 0.00 | 0.00 | 0.00 | 67 | 1019.4 |
| 20260904035103 | 51 | 0 | 0.0 | 0.0 | 0.00 | 0.00 | 0.00 | 67 | 1019.5 |
| 20260904035003 | 51 | 0 | 0.0 | 0.0 | 0.00 | 0.00 | 0.00 | 67 | 1019.3 |
| 20260904034903 | 51 | 0 | 0.0 | 0.0 | 0.00 | 0.00 | 0.00 | 67 | 1019.4 |
| 20260904034803 | 51 | 0 | 0.0 | 0.0 | 0.00 | 0.00 | 0.00 | 67 | 1019.4 |
| 20260904034703 | 51 | 0 | 0.0 | 0.0 | 0.00 | 0.00 | 0.00 | 67 | 1019.3 |
| 20260904034603 | 51 | 0 | 0.0 | 0.0 | 0.00 | 0.00 | 0.00 | 66 | 1019.6 |
| 20260904034503 | 51 | 0 | 0.0 | 0.0 | 0.00 | 0.00 | 0.00 | 66 | 1019.5 |
| 20260904034403 | 51 | 0 | 0.0 | 0.0 | 0.00 | 0.00 | 0.00 | 66 | 1019.3 |
| 20260904034318 | 51 | 270 | 0.0 | 2.0 | 0.00 | 0.00 | 0.00 | 66 | 1019.6 |
| 20260904034303 | 51 | 264 | 0.0 | 2.0 | 0.00 | 0.00 | 0.00 | 66 | 1019.5 |
| 20260904034203 | 51 | 261 | 0.0 | 2.0 | 0.00 | 0.00 | 0.00 | 66 | 1019.6 |
| 20260904034003 | 51 | 264 | 0.0 | 2.0 | 0.00 | 0.00 | 0.00 | 66 | 1019.4 |
| 20260904033903 | 51 | 270 | 0.0 | 2.0 | 0.00 | 0.00 | 0.00 | 66 | 1019.3 |
| 20260904033817 | 51 | 270 | 0.0 | 2.0 | 0.00 | 0.00 | 0.00 | 66 | 1019.3 |
| 20260904033803 | 51 | 271 | 0.0 | 2.0 | 0.00 | 0.00 | 0.00 | 66 | 1019.3 |
| 20260904033703 | 52 | 277 | 0.0 | 2.0 | 0.00 | 0.00 | 0.00 | 66 | 1019.3 |
| 20260904033503 | 52 | 281 | 0.0 | 2.0 | 0.00 | 0.00 | 0.00 | 65 | 1019.7 |
| 20260904033403 | 52 | 270 | 0.0 | 2.0 | 0.00 | 0.00 | 0.00 | 65 | 1019.3 |
| 20260904033303 | 52 | 0 | 0.0 | 0.0 | 0.00 | 0.00 | 0.00 | 65 | 1019.4 |
| 20260904033203 | 52 | 0 | 0.0 | 0.0 | 0.00 | 0.00 | 0.00 | 65 | 1019.3 |
| 20260904033103 | 52 | 0 | 0.0 | 0.0 | 0.00 | 0.00 | 0.00 | 65 | 1019.5 |
| 20260904033003 | 52 | 0 | 0.0 | 0.0 | 0.00 | 0.00 | 0.00 | 65 | 1019.5 |
| 20260904032903 | 52 | 0 | 0.0 | 0.0 | 0.00 | 0.00 | 0.00 | 65 | 1019.2 |
| 20260904032817 | 52 | 0 | 0.0 | 0.0 | 0.00 | 0.00 | 0.00 | 65 | 1019.4 |
| 20260904032703 | 52 | 0 | 0.0 | 0.0 | 0.00 | 0.00 | 0.00 | 65 | 1019.3 |
| 20260904032503 | 52 | 0 | 0.0 | 0.0 | 0.00 | 0.00 | 0.00 | 64 | 1019.1 |
| 20260904032403 | 52 | 0 | 0.0 | 0.0 | 0.00 | 0.00 | 0.00 | 65 | 1019.4 |
| 20260904032305 | 52 | 270 | 0.0 | 2.0 | 0.00 | 0.00 | 0.00 | 64 | 1019.2 |
| 20260904032203 | 52 | 270 | 0.0 | 2.0 | 0.00 | 0.00 | 0.00 | 64 | 1019.4 |
| 20260904032103 | 52 | 270 | 0.0 | 2.0 | 0.00 | 0.00 | 0.00 | 64 | 1019.3 |
| 20260904032003 | 52 | 270 | 0.0 | 2.0 | 0.00 | 0.00 | 0.00 | 64 | 1019.4 |
| 20260904031903 | 52 | 270 | 0.0 | 2.0 | 0.00 | 0.00 | 0.00 | 64 | 1019.4 |
| 20260904031803 | 53 | 0 | 0.0 | 0.0 | 0.00 | 0.00 | 0.00 | 64 | 1019.3 |
| 20260904031703 | 53 | 0 | 0.0 | 0.0 | 0.00 | 0.00 | 0.00 | 64 | 1019.2 |
| 20260904031618 | 53 | 0 | 0.0 | 0.0 | 0.00 | 0.00 | 0.00 | 64 | 1018.9 |
| 20260904031503 | 53 | 0 | 0.0 | 0.0 | 0.00 | 0.00 | 0.00 | 64 | 1019.1 |
| 20260904031417 | 53 | 0 | 0.0 | 0.0 | 0.00 | 0.00 | 0.00 | 64 | 1019.0 |
| 20260904031303 | 53 | 0 | 0.0 | 0.0 | 0.00 | 0.00 | 0.00 | 64 | 1019.1 |
| 20260904031103 | 53 | 0 | 0.0 | 0.0 | 0.00 | 0.00 | 0.00 | 64 | 1019.3 |
| 20260904031003 | 53 | 0 | 0.0 | 0.0 | 0.00 | 0.00 | 0.00 | 63 | 1019.4 |
| 20260904030903 | 53 | 0 | 0.0 | 0.0 | 0.00 | 0.00 | 0.00 | 63 | 1018.9 |
| 20260904030803 | 53 | 0 | 0.0 | 0.0 | 0.00 | 0.00 | 0.00 | 63 | 1019.2 |
| 20260904030703 | 53 | 0 | 0.0 | 0.0 | 0.00 | 0.00 | 0.00 | 63 | 1019.0 |
| 20260904030603 | 53 | 0 | 0.0 | 0.0 | 0.00 | 0.00 | 0.00 | 63 | 1019.2 |
| 20260904030503 | 53 | 0 | 0.0 | 0.0 | 0.00 | 0.00 | 0.00 | 63 | 1019.1 |
| 20260904030403 | 53 | 0 | 0.0 | 0.0 | 0.00 | 0.00 | 0.00 | 63 | 1019.0 |
| 20260904030303 | 53 | 0 | 0.0 | 0.0 | 0.00 | 0.00 | 0.00 | 63 | 1019.0 |
| 20260904030103 | 53 | 0 | 0.0 | 0.0 | 0.00 | 0.00 | 0.00 | 63 | 1019.1 |
| 20260904030003 | 53 | 0 | 0.0 | 0.0 | 0.00 | 0.00 | 0.00 | 64 | 1019.2 |
| 20260904025903 | 53 | 0 | 0.0 | 0.0 | 0.00 | 0.00 | 0.00 | 63 | 1018.9 |
| 20260904025703 | 53 | 0 | 0.0 | 0.0 | 0.00 | 0.00 | 0.00 | 63 | 1019.2 |
| 20260904025603 | 53 | 0 | 0.0 | 0.0 | 0.00 | 0.00 | 0.00 | 63 | 1019.1 |
| 20260904025503 | 53 | 0 | 0.0 | 0.0 | 0.00 | 0.00 | 0.00 | 63 | 1019.0 |
| 20260904025403 | 53 | 0 | 0.0 | 0.0 | 0.00 | 0.00 | 0.00 | 63 | 1019.2 |
| 20260904025306 | 53 | 0 | 0.0 | 0.0 | 0.00 | 0.00 | 0.00 | 63 | 1019.3 |
| 20260904025203 | 53 | 0 | 0.0 | 0.0 | 0.00 | 0.00 | 0.00 | 63 | 1019.3 |
| 20260904025103 | 53 | 0 | 0.0 | 0.0 | 0.00 | 0.00 | 0.00 | 63 | 1019.0 |
| 20260904025004 | 54 | 0 | 0.0 | 0.0 | 0.00 | 0.00 | 0.00 | 63 | 1018.9 |
| 20260904024903 | 54 | 0 | 0.0 | 0.0 | 0.00 | 0.00 | 0.00 | 63 | 1019.2 |
| 20260904024805 | 54 | 0 | 0.0 | 0.0 | 0.00 | 0.00 | 0.00 | 62 | 1019.0 |
| 20260904024703 | 54 | 0 | 0.0 | 0.0 | 0.00 | 0.00 | 0.00 | 62 | 1019.0 |
| 20260904024603 | 54 | 0 | 0.0 | 0.0 | 0.00 | 0.00 | 0.00 | 62 | 1019.0 |
| 20260904024503 | 54 | 0 | 0.0 | 0.0 | 0.00 | 0.00 | 0.00 | 62 | 1019.0 |
| 20260904024403 | 54 | 0 | 0.0 | 0.0 | 0.00 | 0.00 | 0.00 | 61 | 1019.0 |
| 20260904024317 | 54 | 0 | 0.0 | 0.0 | 0.00 | 0.00 | 0.00 | 61 | 1019.0 |
| 20260904024303 | 54 | 247 | 0.0 | 2.0 | 0.00 | 0.00 | 0.00 | 61 | 1019.1 |
| 20260904024203 | 54 | 256 | 0.0 | 2.0 | 0.00 | 0.00 | 0.00 | 61 | 1019.1 |
| 20260904024005 | 54 | 253 | 0.0 | 2.0 | 0.00 | 0.00 | 0.00 | 60 | 1019.0 |
| 20260904023903 | 55 | 251 | 0.0 | 2.0 | 0.00 | 0.00 | 0.00 | 60 | 1018.9 |
| 20260904023803 | 55 | 250 | 0.0 | 2.0 | 0.00 | 0.00 | 0.00 | 60 | 1019.1 |
| 20260904023708 | 55 | 249 | 0.0 | 2.0 | 0.00 | 0.00 | 0.00 | 60 | 1019.0 |
| 20260904023605 | 55 | 243 | 1.0 | 2.0 | 0.00 | 0.00 | 0.00 | 59 | 1019.0 |
| 20260904023503 | 55 | 247 | 2.0 | 2.0 | 0.00 | 0.00 | 0.00 | 59 | 1018.9 |
| 20260904023419 | 55 | 249 | 1.0 | 2.0 | 0.00 | 0.00 | 0.00 | 59 | 1019.0 |
| 20260904023403 | 55 | 250 | 1.0 | 2.0 | 0.00 | 0.00 | 0.00 | 59 | 1019.0 |
| 20260904023303 | 55 | 252 | 1.0 | 2.0 | 0.00 | 0.00 | 0.00 | 59 | 1019.2 |
| 20260904023103 | 55 | 264 | 2.0 | 2.0 | 0.00 | 0.00 | 0.00 | 59 | 1019.2 |
| 20260904023003 | 55 | 265 | 2.0 | 2.0 | 0.00 | 0.00 | 0.00 | 59 | 1019.1 |
| 20260904022903 | 55 | 261 | 1.0 | 2.0 | 0.00 | 0.00 | 0.00 | 59 | 1018.9 |
| 20260904022803 | 55 | 255 | 0.0 | 2.0 | 0.00 | 0.00 | 0.00 | 59 | 1019.0 |
| 20260904022703 | 55 | 252 | 0.0 | 2.0 | 0.00 | 0.00 | 0.00 | 59 | 1018.8 |
| 20260904022603 | 55 | 251 | 0.0 | 2.0 | 0.00 | 0.00 | 0.00 | 59 | 1019.1 |
| 20260904022503 | 55 | 248 | 0.0 | 2.0 | 0.00 | 0.00 | 0.00 | 58 | 1018.9 |
| 20260904022319 | 55 | 241 | 2.0 | 4.0 | 0.00 | 0.00 | 0.00 | 58 | 1019.0 |
| 20260904022305 | 55 | 240 | 2.0 | 4.0 | 0.00 | 0.00 | 0.00 | 58 | 1018.8 |
| 20260904022203 | 56 | 237 | 1.0 | 4.0 | 0.00 | 0.00 | 0.00 | 58 | 1019.0 |
| 20260904022003 | 55 | 231 | 2.0 | 4.0 | 0.00 | 0.00 | 0.00 | 58 | 1018.9 |
| 20260904021903 | 55 | 225 | 2.0 | 4.0 | 0.00 | 0.00 | 0.00 | 58 | 1019.4 |
| 20260904021803 | 55 | 225 | 2.0 | 2.0 | 0.00 | 0.00 | 0.00 | 58 | 1018.9 |
| 20260904021703 | 56 | 225 | 1.0 | 2.0 | 0.00 | 0.00 | 0.00 | 58 | 1019.0 |
| 20260904021618 | 56 | 0 | 0.0 | 0.0 | 0.00 | 0.00 | 0.00 | 58 | 1019.1 |
| 20260904021518 | 56 | 0 | 0.0 | 0.0 | 0.00 | 0.00 | 0.00 | 58 | 1018.8 |
| 20260904021503 | 56 | 0 | 0.0 | 0.0 | 0.00 | 0.00 | 0.00 | 58 | 1019.1 |
| 20260904021205 | 56 | 0 | 0.0 | 0.0 | 0.00 | 0.00 | 0.00 | 58 | 1018.8 |
| 20260904021103 | 56 | 0 | 0.0 | 0.0 | 0.00 | 0.00 | 0.00 | 58 | 1019.0 |
| 20260904021003 | 56 | 0 | 0.0 | 0.0 | 0.00 | 0.00 | 0.00 | 57 | 1018.9 |
| 20260904020903 | 56 | 247 | 0.0 | 2.0 | 0.00 | 0.00 | 0.00 | 57 | 1018.8 |
| 20260904020803 | 56 | 247 | 0.0 | 2.0 | 0.00 | 0.00 | 0.00 | 57 | 1018.8 |
| 20260904020703 | 56 | 243 | 0.0 | 4.0 | 0.00 | 0.00 | 0.00 | 57 | 1018.9 |
| 20260904020603 | 56 | 239 | 0.0 | 4.0 | 0.00 | 0.00 | 0.00 | 57 | 1018.9 |
| 20260904020503 | 56 | 237 | 0.0 | 4.0 | 0.00 | 0.00 | 0.00 | 57 | 1018.8 |
| 20260904020403 | 56 | 244 | 1.0 | 4.0 | 0.00 | 0.00 | 0.00 | 57 | 1018.7 |
| 20260904020303 | 56 | 237 | 1.0 | 4.0 | 0.00 | 0.00 | 0.00 | 57 | 1018.7 |
| 20260904020203 | 56 | 234 | 2.0 | 4.0 | 0.00 | 0.00 | 0.00 | 56 | 1018.8 |
| 20260904020003 | 56 | 234 | 2.0 | 4.0 | 0.00 | 0.00 | 0.00 | 56 | 1019.0 |
| 20260904015903 | 56 | 223 | 2.0 | 4.0 | 0.00 | 0.00 | 0.00 | 57 | 1018.9 |
| 20260904015803 | 56 | 231 | 1.0 | 4.0 | 0.00 | 0.00 | 0.00 | 56 | 1018.8 |
| 20260904015703 | 56 | 240 | 1.0 | 4.0 | 0.00 | 0.00 | 0.00 | 56 | 1018.8 |
| 20260904015603 | 56 | 243 | 0.0 | 4.0 | 0.00 | 0.00 | 0.00 | 56 | 1018.8 |
| 20260904015503 | 56 | 240 | 0.0 | 4.0 | 0.00 | 0.00 | 0.00 | 56 | 1018.8 |
| 20260904015405 | 56 | 244 | 2.0 | 4.0 | 0.00 | 0.00 | 0.00 | 56 | 1018.8 |
| 20260904015306 | 56 | 248 | 1.0 | 4.0 | 0.00 | 0.00 | 0.00 | 56 | 1018.7 |
| 20260904015203 | 56 | 252 | 2.0 | 4.0 | 0.00 | 0.00 | 0.00 | 56 | 1018.8 |
| 20260904015103 | 56 | 253 | 2.0 | 4.0 | 0.00 | 0.00 | 0.00 | 56 | 1018.7 |
| 20260904015004 | 57 | 259 | 1.0 | 2.0 | 0.00 | 0.00 | 0.00 | 56 | 1018.8 |
| 20260904014903 | 57 | 251 | 1.0 | 2.0 | 0.00 | 0.00 | 0.00 | 56 | 1018.7 |
| 20260904014803 | 57 | 248 | 1.0 | 4.0 | 0.00 | 0.00 | 0.00 | 56 | 1018.6 |
| 20260904014703 | 57 | 246 | 2.0 | 4.0 | 0.00 | 0.00 | 0.00 | 55 | 1018.5 |
| 20260904014617 | 57 | 248 | 2.0 | 4.0 | 0.00 | 0.00 | 0.00 | 55 | 1018.7 |
| 20260904014603 | 57 | 247 | 2.0 | 4.0 | 0.00 | 0.00 | 0.00 | 55 | 1018.7 |
| 20260904014508 | 57 | 246 | 1.0 | 4.0 | 0.00 | 0.00 | 0.00 | 55 | 1018.7 |
| 20260904014303 | 57 | 242 | 2.0 | 4.0 | 0.00 | 0.00 | 0.00 | 55 | 1018.7 |
| 20260904014205 | 57 | 241 | 2.0 | 4.0 | 0.00 | 0.00 | 0.00 | 55 | 1018.7 |
| 20260904014103 | 57 | 246 | 2.0 | 4.0 | 0.00 | 0.00 | 0.00 | 55 | 1018.6 |
| 20260904014017 | 57 | 243 | 2.0 | 4.0 | 0.00 | 0.00 | 0.00 | 54 | 1018.6 |
| 20260904014003 | 57 | 242 | 2.0 | 4.0 | 0.00 | 0.00 | 0.00 | 54 | 1018.6 |
| 20260904013903 | 57 | 248 | 2.0 | 4.0 | 0.00 | 0.00 | 0.00 | 55 | 1018.6 |
| 20260904013818 | 57 | 247 | 2.0 | 4.0 | 0.00 | 0.00 | 0.00 | 54 | 1018.5 |
| 20260904013703 | 57 | 246 | 1.0 | 4.0 | 0.00 | 0.00 | 0.00 | 55 | 1018.5 |
| 20260904013503 | 57 | 238 | 2.0 | 4.0 | 0.00 | 0.00 | 0.00 | 54 | 1018.5 |
| 20260904013403 | 57 | 236 | 3.0 | 4.0 | 0.00 | 0.00 | 0.00 | 54 | 1018.8 |
| 20260904013303 | 57 | 239 | 2.0 | 4.0 | 0.00 | 0.00 | 0.00 | 54 | 1018.7 |
| 20260904013205 | 57 | 239 | 2.0 | 4.0 | 0.00 | 0.00 | 0.00 | 54 | 1018.4 |
| 20260904013103 | 58 | 234 | 2.0 | 4.0 | 0.00 | 0.00 | 0.00 | 53 | 1018.6 |
| 20260904013017 | 58 | 235 | 2.0 | 4.0 | 0.00 | 0.00 | 0.00 | 53 | 1018.3 |
| 20260904013003 | 58 | 237 | 2.0 | 4.0 | 0.00 | 0.00 | 0.00 | 53 | 1018.3 |
| 20260904012903 | 58 | 231 | 2.0 | 4.0 | 0.00 | 0.00 | 0.00 | 53 | 1018.5 |
| 20260904012703 | 58 | 229 | 2.0 | 4.0 | 0.00 | 0.00 | 0.00 | 53 | 1018.4 |
| 20260904012603 | 58 | 229 | 2.0 | 4.0 | 0.00 | 0.00 | 0.00 | 53 | 1018.3 |
| 20260904012503 | 58 | 225 | 2.0 | 4.0 | 0.00 | 0.00 | 0.00 | 53 | 1018.4 |
| 20260904012403 | 58 | 227 | 2.0 | 4.0 | 0.00 | 0.00 | 0.00 | 52 | 1018.4 |
| 20260904012306 | 58 | 228 | 2.0 | 4.0 | 0.00 | 0.00 | 0.00 | 52 | 1018.6 |
| 20260904012203 | 58 | 230 | 2.0 | 4.0 | 0.00 | 0.00 | 0.00 | 52 | 1018.3 |
| 20260904012103 | 58 | 237 | 2.0 | 4.0 | 0.00 | 0.00 | 0.00 | 52 | 1018.5 |
| 20260904012003 | 58 | 241 | 2.0 | 4.0 | 0.00 | 0.00 | 0.00 | 52 | 1018.1 |
| 20260904011903 | 58 | 248 | 2.0 | 4.0 | 0.00 | 0.00 | 0.00 | 52 | 1018.3 |
| 20260904011803 | 58 | 257 | 2.0 | 4.0 | 0.00 | 0.00 | 0.00 | 52 | 1018.2 |
| 20260904011703 | 58 | 257 | 3.0 | 4.0 | 0.00 | 0.00 | 0.00 | 51 | 1018.3 |
| 20260904011603 | 58 | 249 | 3.0 | 4.0 | 0.00 | 0.00 | 0.00 | 51 | 1018.3 |
| 20260904011503 | 58 | 248 | 2.0 | 4.0 | 0.00 | 0.00 | 0.00 | 52 | 1018.3 |
| 20260904011403 | 58 | 246 | 1.0 | 4.0 | 0.00 | 0.00 | 0.00 | 52 | 1018.0 |
| 20260904011303 | 58 | 238 | 2.0 | 4.0 | 0.00 | 0.00 | 0.00 | 52 | 1018.3 |
| 20260904011103 | 58 | 237 | 1.0 | 4.0 | 0.00 | 0.00 | 0.00 | 52 | 1018.0 |
| 20260904011003 | 58 | 237 | 2.0 | 4.0 | 0.00 | 0.00 | 0.00 | 52 | 1018.1 |
| 20260904010903 | 58 | 236 | 2.0 | 4.0 | 0.00 | 0.00 | 0.00 | 52 | 1018.1 |
| 20260904010803 | 58 | 238 | 2.0 | 4.0 | 0.00 | 0.00 | 0.00 | 52 | 1018.2 |
| 20260904010703 | 58 | 244 | 2.0 | 4.0 | 0.00 | 0.00 | 0.00 | 52 | 1018.1 |
| 20260904010603 | 58 | 245 | 2.0 | 2.0 | 0.00 | 0.00 | 0.00 | 52 | 1018.3 |
| 20260904010503 | 58 | 242 | 2.0 | 4.0 | 0.00 | 0.00 | 0.00 | 52 | 1018.1 |
| 20260904010403 | 58 | 239 | 2.0 | 4.0 | 0.00 | 0.00 | 0.00 | 52 | 1018.1 |
| 20260904010303 | 59 | 240 | 2.0 | 4.0 | 0.00 | 0.00 | 0.00 | 52 | 1017.8 |
| 20260904010203 | 59 | 238 | 2.0 | 4.0 | 0.00 | 0.00 | 0.00 | 52 | 1018.1 |
| 20260904010103 | 59 | 234 | 2.0 | 4.0 | 0.00 | 0.00 | 0.00 | 52 | 1018.2 |
| 20260904010003 | 59 | 233 | 2.0 | 4.0 | 0.00 | 0.00 | 0.00 | 52 | 1017.8 |
| 20260904005917 | 59 | 233 | 2.0 | 4.0 | 0.00 | 0.00 | 0.00 | 52 | 1018.0 |
| 20260904005903 | 59 | 232 | 2.0 | 4.0 | 0.00 | 0.00 | 0.00 | 51 | 1018.1 |
| 20260904005803 | 59 | 229 | 2.0 | 4.0 | 0.00 | 0.00 | 0.00 | 51 | 1018.1 |
| 20260904005718 | 59 | 229 | 2.0 | 4.0 | 0.00 | 0.00 | 0.00 | 51 | 1018.2 |
| 20260904005603 | 59 | 230 | 2.0 | 4.0 | 0.00 | 0.00 | 0.00 | 51 | 1018.0 |
| 20260904005403 | 59 | 230 | 3.0 | 4.0 | 0.00 | 0.00 | 0.00 | 51 | 1018.0 |
| 20260904005317 | 59 | 230 | 2.0 | 4.0 | 0.00 | 0.00 | 0.00 | 51 | 1018.1 |
| 20260904005306 | 59 | 229 | 2.0 | 4.0 | 0.00 | 0.00 | 0.00 | 51 | 1018.1 |
| 20260904005003 | 59 | 225 | 2.0 | 4.0 | 0.00 | 0.00 | 0.00 | 51 | 1018.1 |
| 20260904004903 | 59 | 225 | 2.0 | 4.0 | 0.00 | 0.00 | 0.00 | 51 | 1017.9 |
| 20260904004818 | 59 | 227 | 2.0 | 4.0 | 0.00 | 0.00 | 0.00 | 51 | 1017.7 |
| 20260904004703 | 59 | 230 | 2.0 | 4.0 | 0.00 | 0.00 | 0.00 | 51 | 1017.7 |
| 20260904004403 | 59 | 229 | 2.0 | 4.0 | 0.00 | 0.00 | 0.00 | 50 | 1017.9 |
| 20260904004303 | 59 | 230 | 2.0 | 4.0 | 0.00 | 0.00 | 0.00 | 50 | 1017.7 |
| 20260904004118 | 60 | 237 | 4.0 | 4.0 | 0.00 | 0.00 | 0.00 | 49 | 1017.7 |
| 20260904004103 | 60 | 238 | 4.0 | 4.0 | 0.00 | 0.00 | 0.00 | 49 | 1017.7 |
| 20260904004003 | 60 | 243 | 2.0 | 4.0 | 0.00 | 0.00 | 0.00 | 49 | 1017.6 |
| 20260904003803 | 60 | 249 | 1.0 | 4.0 | 0.00 | 0.00 | 0.00 | 50 | 1017.8 |
| 20260904003703 | 60 | 245 | 2.0 | 4.0 | 0.00 | 0.00 | 0.00 | 49 | 1017.6 |
| 20260904003603 | 60 | 245 | 2.0 | 4.0 | 0.00 | 0.00 | 0.00 | 50 | 1017.9 |
| 20260904003303 | 60 | 236 | 2.0 | 4.0 | 0.00 | 0.00 | 0.00 | 49 | 1017.7 |
| 20260904003203 | 60 | 234 | 2.0 | 4.0 | 0.00 | 0.00 | 0.00 | 49 | 1017.9 |
| 20260904003103 | 60 | 230 | 2.0 | 4.0 | 0.00 | 0.00 | 0.00 | 49 | 1018.0 |
| 20260904003003 | 60 | 228 | 2.0 | 4.0 | 0.00 | 0.00 | 0.00 | 49 | 1017.8 |
| 20260904002903 | 60 | 226 | 2.0 | 4.0 | 0.00 | 0.00 | 0.00 | 49 | 1018.0 |
| 20260904002803 | 60 | 231 | 2.0 | 4.0 | 0.00 | 0.00 | 0.00 | 49 | 1017.7 |
| 20260904002703 | 60 | 233 | 2.0 | 4.0 | 0.00 | 0.00 | 0.00 | 49 | 1017.9 |
| 20260904002603 | 60 | 233 | 2.0 | 4.0 | 0.00 | 0.00 | 0.00 | 49 | 1017.6 |
| 20260904002503 | 60 | 235 | 2.0 | 4.0 | 0.00 | 0.00 | 0.00 | 49 | 1017.6 |
| 20260904002403 | 60 | 239 | 2.0 | 4.0 | 0.00 | 0.00 | 0.00 | 50 | 1017.9 |
| 20260904002316 | 60 | 235 | 2.0 | 4.0 | 0.00 | 0.00 | 0.00 | 49 | 1017.5 |
| 20260904002306 | 60 | 235 | 1.0 | 4.0 | 0.00 | 0.00 | 0.00 | 49 | 1017.6 |
| 20260904002203 | 60 | 236 | 1.0 | 4.0 | 0.00 | 0.00 | 0.00 | 49 | 1017.6 |
| 20260904002003 | 60 | 236 | 2.0 | 4.0 | 0.00 | 0.00 | 0.00 | 49 | 1017.9 |
| 20260904001903 | 60 | 231 | 3.0 | 4.0 | 0.00 | 0.00 | 0.00 | 49 | 1017.7 |
| 20260904001803 | 60 | 234 | 2.0 | 4.0 | 0.00 | 0.00 | 0.00 | 49 | 1017.7 |
| 20260904001705 | 60 | 233 | 3.0 | 4.0 | 0.00 | 0.00 | 0.00 | 49 | 1017.7 |
| 20260904001603 | 60 | 234 | 3.0 | 4.0 | 0.00 | 0.00 | 0.00 | 49 | 1017.6 |
| 20260904001517 | 60 | 240 | 2.0 | 4.0 | 0.00 | 0.00 | 0.00 | 49 | 1017.5 |
| 20260904001503 | 60 | 242 | 2.0 | 4.0 | 0.00 | 0.00 | 0.00 | 49 | 1017.6 |
| 20260904001403 | 60 | 253 | 2.0 | 4.0 | 0.00 | 0.00 | 0.00 | 49 | 1017.6 |
| 20260904001203 | 60 | 244 | 2.0 | 6.0 | 0.00 | 0.00 | 0.00 | 49 | 1017.7 |
| 20260904001103 | 60 | 243 | 2.0 | 6.0 | 0.00 | 0.00 | 0.00 | 48 | 1017.6 |
| 20260904001004 | 60 | 234 | 2.0 | 6.0 | 0.00 | 0.00 | 0.00 | 48 | 1017.5 |
| 20260904000903 | 60 | 231 | 2.0 | 6.0 | 0.00 | 0.00 | 0.00 | 48 | 1017.6 |
| 20260904000803 | 60 | 233 | 3.0 | 6.0 | 0.00 | 0.00 | 0.00 | 48 | 1017.7 |
| 20260904000703 | 61 | 235 | 3.0 | 6.0 | 0.00 | 0.00 | 0.00 | 48 | 1017.6 |
| 20260904000603 | 60 | 230 | 3.0 | 6.0 | 0.00 | 0.00 | 0.00 | 48 | 1017.5 |
| 20260904000503 | 61 | 229 | 2.0 | 4.0 | 0.00 | 0.00 | 0.00 | 48 | 1017.6 |
| 20260904000303 | 61 | 232 | 4.0 | 4.0 | 0.00 | 0.00 | 0.00 | 47 | 1017.4 |
| 20260904000204 | 61 | 230 | 2.0 | 4.0 | 0.00 | 0.00 | 0.00 | 48 | 1017.6 |
| 20260904000103 | 61 | 229 | 2.0 | 6.0 | 0.00 | 0.00 | 0.00 | 48 | 1017.8 |
| 20260904000004 | 60 | 235 | 2.0 | 6.0 | 0.00 | 0.00 | 0.00 | 48 | 1017.5 |
| 20260903235903 | 60 | 236 | 2.0 | 6.0 | 0.00 | 0.00 | 0.00 | 48 | 1017.7 |
| 20260903235821 | 60 | 231 | 2.0 | 6.0 | 0.00 | 0.00 | 0.00 | 48 | 1017.5 |
| 20260903235803 | 60 | 232 | 2.0 | 6.0 | 0.00 | 0.00 | 0.00 | 48 | 1017.5 |
| 20260903235703 | 61 | 235 | 2.0 | 6.0 | 0.00 | 0.00 | 0.00 | 48 | 1017.5 |
| 20260903235503 | 61 | 245 | 2.0 | 6.0 | 0.00 | 0.00 | 0.00 | 48 | 1017.6 |
| 20260903235418 | 61 | 244 | 2.0 | 6.0 | 0.00 | 0.00 | 0.00 | 48 | 1017.5 |
| 20260903235404 | 61 | 243 | 2.0 | 6.0 | 0.00 | 0.00 | 0.00 | 48 | 1017.5 |
| 20260903235305 | 61 | 243 | 2.0 | 6.0 | 0.00 | 0.00 | 0.00 | 48 | 1017.4 |
| 20260903235018 | 61 | 232 | 3.0 | 4.0 | 0.00 | 0.00 | 0.00 | 48 | 1017.5 |
| 20260903235003 | 61 | 231 | 3.0 | 4.0 | 0.00 | 0.00 | 0.00 | 48 | 1017.5 |
| 20260903234903 | 61 | 232 | 2.0 | 4.0 | 0.00 | 0.00 | 0.00 | 48 | 1017.6 |
| 20260903234703 | 61 | 226 | 2.0 | 4.0 | 0.00 | 0.00 | 0.00 | 47 | 1017.5 |
| 20260903234616 | 61 | 228 | 2.0 | 4.0 | 0.00 | 0.00 | 0.00 | 48 | 1017.3 |
| 20260903234603 | 61 | 229 | 2.0 | 4.0 | 0.00 | 0.00 | 0.00 | 48 | 1017.3 |
| 20260903234503 | 61 | 235 | 1.0 | 6.0 | 0.00 | 0.00 | 0.00 | 48 | 1017.5 |
| 20260903234418 | 61 | 234 | 2.0 | 6.0 | 0.00 | 0.00 | 0.00 | 47 | 1017.3 |
| 20260903234318 | 61 | 230 | 2.0 | 6.0 | 0.00 | 0.00 | 0.00 | 47 | 1017.4 |
| 20260903234303 | 61 | 231 | 3.0 | 6.0 | 0.00 | 0.00 | 0.00 | 47 | 1017.4 |
| 20260903234003 | 61 | 240 | 3.0 | 6.0 | 0.00 | 0.00 | 0.00 | 47 | 1017.3 |
| 20260903233903 | 61 | 244 | 2.0 | 4.0 | 0.00 | 0.00 | 0.00 | 47 | 1017.5 |
| 20260903233803 | 61 | 246 | 2.0 | 4.0 | 0.00 | 0.00 | 0.00 | 47 | 1017.3 |
| 20260903233703 | 61 | 244 | 3.0 | 4.0 | 0.00 | 0.00 | 0.00 | 47 | 1017.3 |
| 20260903233603 | 61 | 246 | 2.0 | 4.0 | 0.00 | 0.00 | 0.00 | 47 | 1017.5 |
| 20260903233503 | 61 | 244 | 2.0 | 4.0 | 0.00 | 0.00 | 0.00 | 47 | 1017.2 |
| 20260903233403 | 61 | 241 | 2.0 | 4.0 | 0.00 | 0.00 | 0.00 | 46 | 1017.4 |
| 20260903233303 | 61 | 240 | 2.0 | 4.0 | 0.00 | 0.00 | 0.00 | 46 | 1017.3 |
| 20260903233203 | 61 | 237 | 2.0 | 4.0 | 0.00 | 0.00 | 0.00 | 46 | 1017.1 |
| 20260903233103 | 62 | 238 | 2.0 | 4.0 | 0.00 | 0.00 | 0.00 | 46 | 1017.2 |
| 20260903233003 | 62 | 241 | 3.0 | 4.0 | 0.00 | 0.00 | 0.00 | 46 | 1017.2 |
| 20260903232903 | 62 | 233 | 2.0 | 6.0 | 0.00 | 0.00 | 0.00 | 46 | 1017.0 |
| 20260903232803 | 62 | 225 | 2.0 | 6.0 | 0.00 | 0.00 | 0.00 | 46 | 1017.3 |
| 20260903232703 | 62 | 221 | 3.0 | 6.0 | 0.00 | 0.00 | 0.00 | 46 | 1017.1 |
| 20260903232603 | 62 | 216 | 2.0 | 6.0 | 0.00 | 0.00 | 0.00 | 46 | 1017.0 |
| 20260903232503 | 62 | 216 | 4.0 | 6.0 | 0.00 | 0.00 | 0.00 | 46 | 1017.1 |
| 20260903232403 | 62 | 219 | 3.0 | 6.0 | 0.00 | 0.00 | 0.00 | 46 | 1017.0 |
| 20260903232318 | 62 | 224 | 3.0 | 7.0 | 0.00 | 0.00 | 0.00 | 46 | 1017.0 |
| 20260903232306 | 62 | 225 | 2.0 | 7.0 | 0.00 | 0.00 | 0.00 | 46 | 1017.2 |
| 20260903232203 | 62 | 228 | 2.0 | 7.0 | 0.00 | 0.00 | 0.00 | 46 | 1017.2 |
| 20260903232003 | 62 | 233 | 2.0 | 7.0 | 0.00 | 0.00 | 0.00 | 45 | 1017.1 |
| 20260903231916 | 62 | 236 | 3.0 | 7.0 | 0.00 | 0.00 | 0.00 | 45 | 1017.3 |
| 20260903231903 | 62 | 236 | 4.0 | 7.0 | 0.00 | 0.00 | 0.00 | 45 | 1017.1 |
| 20260903231803 | 62 | 237 | 2.0 | 6.0 | 0.00 | 0.00 | 0.00 | 45 | 1017.2 |
| 20260903231603 | 62 | 236 | 2.0 | 6.0 | 0.00 | 0.00 | 0.00 | 45 | 1017.1 |
| 20260903231503 | 62 | 229 | 4.0 | 6.0 | 0.00 | 0.00 | 0.00 | 45 | 1016.9 |
| 20260903231403 | 62 | 224 | 3.0 | 4.0 | 0.00 | 0.00 | 0.00 | 45 | 1017.0 |
| 20260903231303 | 62 | 220 | 2.0 | 6.0 | 0.00 | 0.00 | 0.00 | 45 | 1016.9 |
| 20260903231203 | 62 | 221 | 2.0 | 6.0 | 0.00 | 0.00 | 0.00 | 45 | 1016.8 |
| 20260903231117 | 62 | 226 | 3.0 | 6.0 | 0.00 | 0.00 | 0.00 | 45 | 1017.1 |
| 20260903231103 | 62 | 227 | 2.0 | 6.0 | 0.00 | 0.00 | 0.00 | 44 | 1016.9 |
| 20260903231003 | 62 | 233 | 2.0 | 6.0 | 0.00 | 0.00 | 0.00 | 44 | 1016.9 |
| 20260903230803 | 62 | 238 | 3.0 | 6.0 | 0.00 | 0.00 | 0.00 | 44 | 1017.1 |
| 20260903230703 | 62 | 240 | 2.0 | 4.0 | 0.00 | 0.00 | 0.00 | 44 | 1016.9 |
| 20260903230604 | 62 | 232 | 2.0 | 4.0 | 0.00 | 0.00 | 0.00 | 44 | 1016.9 |
| 20260903230503 | 62 | 229 | 2.0 | 4.0 | 0.00 | 0.00 | 0.00 | 44 | 1016.9 |
| 20260903230403 | 63 | 231 | 2.0 | 4.0 | 0.00 | 0.00 | 0.00 | 44 | 1016.9 |
| 20260903230203 | 63 | 236 | 2.0 | 4.0 | 0.00 | 0.00 | 0.00 | 44 | 1016.6 |
| 20260903230103 | 63 | 237 | 2.0 | 4.0 | 0.00 | 0.00 | 0.00 | 44 | 1016.6 |
| 20260903230003 | 63 | 237 | 2.0 | 4.0 | 0.00 | 0.00 | 0.00 | 44 | 1016.6 |
| 20260903225916 | 63 | 236 | 2.0 | 4.0 | 0.00 | 0.00 | 0.00 | 43 | 1016.7 |
| 20260903225804 | 63 | 243 | 3.0 | 6.0 | 0.00 | 0.00 | 0.00 | 43 | 1016.7 |
| 20260903225717 | 63 | 239 | 2.0 | 6.0 | 0.00 | 0.00 | 0.00 | 44 | 1016.8 |
| 20260903225403 | 63 | 236 | 3.0 | 7.0 | 0.00 | 0.00 | 0.00 | 43 | 1016.6 |
| 20260903225306 | 63 | 230 | 2.0 | 7.0 | 0.00 | 0.00 | 0.00 | 43 | 1016.4 |
| 20260903225203 | 63 | 230 | 4.0 | 7.0 | 0.00 | 0.00 | 0.00 | 43 | 1016.4 |
| 20260903225103 | 63 | 235 | 2.0 | 7.0 | 0.00 | 0.00 | 0.00 | 43 | 1016.5 |
| 20260903225003 | 63 | 231 | 4.0 | 7.0 | 0.00 | 0.00 | 0.00 | 43 | 1016.6 |
| 20260903224903 | 63 | 213 | 4.0 | 7.0 | 0.00 | 0.00 | 0.00 | 43 | 1016.6 |
| 20260903224805 | 63 | 205 | 2.0 | 4.0 | 0.00 | 0.00 | 0.00 | 43 | 1016.5 |
| 20260903224703 | 63 | 214 | 2.0 | 4.0 | 0.00 | 0.00 | 0.00 | 43 | 1016.4 |
| 20260903224603 | 63 | 215 | 2.0 | 4.0 | 0.00 | 0.00 | 0.00 | 43 | 1016.6 |
| 20260903224503 | 63 | 217 | 2.0 | 6.0 | 0.00 | 0.00 | 0.00 | 43 | 1016.6 |
| 20260903224403 | 64 | 226 | 2.0 | 9.0 | 0.00 | 0.00 | 0.00 | 42 | 1016.6 |
| 20260903224303 | 64 | 240 | 2.0 | 9.0 | 0.00 | 0.00 | 0.00 | 42 | 1016.5 |
| 20260903224203 | 64 | 235 | 2.0 | 9.0 | 0.00 | 0.00 | 0.00 | 42 | 1016.4 |
| 20260903224103 | 64 | 234 | 2.0 | 9.0 | 0.00 | 0.00 | 0.00 | 42 | 1016.5 |
| 20260903224003 | 64 | 238 | 4.0 | 9.0 | 0.00 | 0.00 | 0.00 | 42 | 1016.5 |
| 20260903223905 | 64 | 240 | 4.0 | 7.0 | 0.00 | 0.00 | 0.00 | 42 | 1016.3 |
| 20260903223803 | 64 | 229 | 3.0 | 7.0 | 0.00 | 0.00 | 0.00 | 42 | 1016.4 |
| 20260903223703 | 64 | 227 | 3.0 | 6.0 | 0.00 | 0.00 | 0.00 | 42 | 1016.2 |
| 20260903223603 | 64 | 215 | 4.0 | 8.0 | 0.00 | 0.00 | 0.00 | 42 | 1016.4 |
| 20260903223505 | 64 | 217 | 3.0 | 8.0 | 0.00 | 0.00 | 0.00 | 42 | 1016.4 |
| 20260903223403 | 64 | 219 | 2.0 | 8.0 | 0.00 | 0.00 | 0.00 | 41 | 1016.3 |
| 20260903223303 | 64 | 223 | 3.0 | 8.0 | 0.00 | 0.00 | 0.00 | 41 | 1016.3 |
| 20260903223218 | 64 | 227 | 3.0 | 8.0 | 0.00 | 0.00 | 0.00 | 41 | 1016.3 |
| 20260903223203 | 64 | 229 | 3.0 | 8.0 | 0.00 | 0.00 | 0.00 | 41 | 1016.3 |
| 20260903223104 | 64 | 242 | 4.0 | 8.0 | 0.00 | 0.00 | 0.00 | 41 | 1016.1 |
| 20260903222905 | 64 | 243 | 2.0 | 8.0 | 0.00 | 0.00 | 0.00 | 42 | 1016.4 |
| 20260903222803 | 64 | 239 | 3.0 | 8.0 | 0.00 | 0.00 | 0.00 | 41 | 1016.4 |
| 20260903222703 | 64 | 241 | 3.0 | 8.0 | 0.00 | 0.00 | 0.00 | 41 | 1016.2 |
| 20260903222603 | 64 | 241 | 3.0 | 8.0 | 0.00 | 0.00 | 0.00 | 41 | 1016.2 |
| 20260903222503 | 64 | 237 | 3.0 | 8.0 | 0.00 | 0.00 | 0.00 | 41 | 1016.2 |
| 20260903222403 | 64 | 232 | 4.0 | 8.0 | 0.00 | 0.00 | 0.00 | 41 | 1016.2 |
| 20260903222318 | 64 | 233 | 2.0 | 8.0 | 0.00 | 0.00 | 0.00 | 42 | 1016.1 |
| 20260903222305 | 64 | 231 | 2.0 | 7.0 | 0.00 | 0.00 | 0.00 | 42 | 1016.2 |
| 20260903222203 | 64 | 222 | 2.0 | 7.0 | 0.00 | 0.00 | 0.00 | 41 | 1016.1 |
| 20260903222003 | 64 | 218 | 2.0 | 7.0 | 0.00 | 0.00 | 0.00 | 42 | 1016.1 |
| 20260903221918 | 64 | 227 | 3.0 | 7.0 | 0.00 | 0.00 | 0.00 | 41 | 1016.3 |
| 20260903221903 | 64 | 229 | 2.0 | 7.0 | 0.00 | 0.00 | 0.00 | 42 | 1016.1 |
| 20260903221803 | 64 | 236 | 4.0 | 7.0 | 0.00 | 0.00 | 0.00 | 41 | 1016.0 |
| 20260903221603 | 64 | 251 | 2.0 | 7.0 | 0.00 | 0.00 | 0.00 | 41 | 1015.9 |
| 20260903221503 | 64 | 245 | 4.0 | 7.0 | 0.00 | 0.00 | 0.00 | 41 | 1015.9 |
| 20260903221417 | 64 | 242 | 2.0 | 7.0 | 0.00 | 0.00 | 0.00 | 41 | 1016.0 |
| 20260903221403 | 64 | 241 | 2.0 | 7.0 | 0.00 | 0.00 | 0.00 | 41 | 1016.0 |
| 20260903221303 | 64 | 236 | 2.0 | 7.0 | 0.00 | 0.00 | 0.00 | 41 | 1016.1 |
| 20260903221103 | 64 | 223 | 3.0 | 7.0 | 0.00 | 0.00 | 0.00 | 41 | 1015.9 |
| 20260903221003 | 65 | 228 | 2.0 | 7.0 | 0.00 | 0.00 | 0.00 | 41 | 1015.9 |
| 20260903220903 | 65 | 228 | 3.0 | 7.0 | 0.00 | 0.00 | 0.00 | 41 | 1016.0 |
| 20260903220803 | 65 | 223 | 4.0 | 7.0 | 0.00 | 0.00 | 0.00 | 40 | 1016.0 |
| 20260903220703 | 65 | 228 | 4.0 | 8.0 | 0.00 | 0.00 | 0.00 | 40 | 1016.0 |
| 20260903220618 | 65 | 229 | 2.0 | 8.0 | 0.00 | 0.00 | 0.00 | 41 | 1016.1 |
| 20260903220603 | 65 | 227 | 2.0 | 8.0 | 0.00 | 0.00 | 0.00 | 41 | 1016.1 |
| 20260903220516 | 65 | 219 | 3.0 | 8.0 | 0.00 | 0.00 | 0.00 | 40 | 1016.0 |
| 20260903220503 | 65 | 216 | 3.0 | 8.0 | 0.00 | 0.00 | 0.00 | 40 | 1016.0 |
| 20260903220203 | 65 | 214 | 4.0 | 11.0 | 0.00 | 0.00 | 0.00 | 40 | 1016.0 |
| 20260903220003 | 65 | 217 | 4.0 | 11.0 | 0.00 | 0.00 | 0.00 | 40 | 1015.8 |
| 20260903215903 | 65 | 224 | 4.0 | 11.0 | 0.00 | 0.00 | 0.00 | 40 | 1015.9 |
| 20260903215803 | 65 | 236 | 6.0 | 11.0 | 0.00 | 0.00 | 0.00 | 40 | 1016.1 |
| 20260903215703 | 65 | 245 | 5.0 | 11.0 | 0.00 | 0.00 | 0.00 | 40 | 1015.9 |
| 20260903215603 | 65 | 265 | 4.0 | 7.0 | 0.00 | 0.00 | 0.00 | 40 | 1016.0 |
| 20260903215503 | 65 | 267 | 3.0 | 7.0 | 0.00 | 0.00 | 0.00 | 40 | 1015.8 |
| 20260903215403 | 65 | 260 | 3.0 | 8.0 | 0.00 | 0.00 | 0.00 | 40 | 1016.0 |
| 20260903215306 | 65 | 233 | 2.0 | 8.0 | 0.00 | 0.00 | 0.00 | 40 | 1016.0 |
| 20260903215203 | 65 | 224 | 2.0 | 9.0 | 0.00 | 0.00 | 0.00 | 40 | 1015.9 |
| 20260903215103 | 65 | 217 | 3.0 | 11.0 | 0.00 | 0.00 | 0.00 | 39 | 1015.8 |
| 20260903215003 | 66 | 207 | 3.0 | 11.0 | 0.00 | 0.00 | 0.00 | 39 | 1015.7 |
| 20260903214903 | 66 | 206 | 5.0 | 11.0 | 0.00 | 0.00 | 0.00 | 39 | 1015.7 |
| 20260903214803 | 66 | 218 | 5.0 | 11.0 | 0.00 | 0.00 | 0.00 | 39 | 1015.8 |
| 20260903214703 | 66 | 228 | 5.0 | 11.0 | 0.00 | 0.00 | 0.00 | 39 | 1015.7 |
| 20260903214603 | 66 | 222 | 3.0 | 9.0 | 0.00 | 0.00 | 0.00 | 39 | 1015.8 |
| 20260903214503 | 66 | 224 | 3.0 | 9.0 | 0.00 | 0.00 | 0.00 | 39 | 1015.8 |
| 20260903214403 | 66 | 231 | 3.0 | 9.0 | 0.00 | 0.00 | 0.00 | 39 | 1015.7 |
| 20260903214303 | 66 | 236 | 6.0 | 13.0 | 0.00 | 0.00 | 0.00 | 39 | 1015.8 |
| 20260903214203 | 66 | 236 | 4.0 | 13.0 | 0.00 | 0.00 | 0.00 | 39 | 1015.7 |
| 20260903214103 | 66 | 239 | 3.0 | 13.0 | 0.00 | 0.00 | 0.00 | 39 | 1015.7 |
| 20260903214003 | 66 | 258 | 4.0 | 13.0 | 0.00 | 0.00 | 0.00 | 39 | 1015.7 |
| 20260903213903 | 66 | 251 | 5.0 | 13.0 | 0.00 | 0.00 | 0.00 | 39 | 1015.5 |
| 20260903213816 | 66 | 246 | 6.0 | 13.0 | 0.00 | 0.00 | 0.00 | 39 | 1015.6 |
| 20260903213803 | 66 | 245 | 6.0 | 13.0 | 0.00 | 0.00 | 0.00 | 39 | 1015.6 |
| 20260903213703 | 66 | 243 | 3.0 | 8.0 | 0.00 | 0.00 | 0.00 | 39 | 1015.5 |
| 20260903213518 | 66 | 234 | 4.0 | 11.0 | 0.00 | 0.00 | 0.00 | 39 | 1015.5 |
| 20260903213503 | 67 | 230 | 3.0 | 11.0 | 0.00 | 0.00 | 0.00 | 39 | 1015.5 |
| 20260903213403 | 67 | 227 | 4.0 | 11.0 | 0.00 | 0.00 | 0.00 | 39 | 1015.4 |
| 20260903213203 | 67 | 220 | 4.0 | 11.0 | 0.00 | 0.00 | 0.00 | 39 | 1015.7 |
| 20260903213103 | 67 | 220 | 6.0 | 11.0 | 0.00 | 0.00 | 0.00 | 39 | 1015.6 |
| 20260903213003 | 67 | 216 | 4.0 | 11.0 | 0.00 | 0.00 | 0.00 | 39 | 1015.6 |
| 20260903212903 | 67 | 223 | 5.0 | 11.0 | 0.00 | 0.00 | 0.00 | 39 | 1015.5 |
| 20260903212819 | 67 | 230 | 5.0 | 11.0 | 0.00 | 0.00 | 0.00 | 39 | 1015.7 |
| 20260903212803 | 67 | 233 | 5.0 | 11.0 | 0.00 | 0.00 | 0.00 | 39 | 1015.7 |
| 20260903212703 | 67 | 239 | 4.0 | 8.0 | 0.00 | 0.00 | 0.00 | 40 | 1015.5 |
| 20260903212518 | 67 | 239 | 4.0 | 11.0 | 0.00 | 0.00 | 0.00 | 39 | 1015.3 |
| 20260903212503 | 67 | 240 | 4.0 | 11.0 | 0.00 | 0.00 | 0.00 | 39 | 1015.3 |
| 20260903212403 | 67 | 236 | 4.0 | 11.0 | 0.00 | 0.00 | 0.00 | 40 | 1015.6 |
| 20260903212203 | 67 | 238 | 5.0 | 11.0 | 0.00 | 0.00 | 0.00 | 39 | 1015.2 |
| 20260903212103 | 67 | 236 | 4.0 | 11.0 | 0.00 | 0.00 | 0.00 | 40 | 1015.4 |
| 20260903212003 | 67 | 235 | 5.0 | 11.0 | 0.00 | 0.00 | 0.00 | 39 | 1015.3 |
| 20260903211903 | 67 | 240 | 7.0 | 11.0 | 0.00 | 0.00 | 0.00 | 39 | 1015.4 |
| 20260903211803 | 67 | 223 | 4.0 | 11.0 | 0.00 | 0.00 | 0.00 | 39 | 1015.4 |
| 20260903211703 | 67 | 213 | 4.0 | 11.0 | 0.00 | 0.00 | 0.00 | 39 | 1015.4 |
| 20260903211603 | 67 | 210 | 4.0 | 11.0 | 0.00 | 0.00 | 0.00 | 39 | 1015.3 |
| 20260903211503 | 67 | 212 | 4.0 | 11.0 | 0.00 | 0.00 | 0.00 | 39 | 1015.2 |
| 20260903211417 | 67 | 207 | 5.0 | 11.0 | 0.00 | 0.00 | 0.00 | 39 | 1015.3 |
| 20260903211403 | 67 | 208 | 5.0 | 11.0 | 0.00 | 0.00 | 0.00 | 39 | 1015.3 |
| 20260903211303 | 67 | 224 | 6.0 | 11.0 | 0.00 | 0.00 | 0.00 | 38 | 1015.3 |
| 20260903211103 | 68 | 254 | 4.0 | 11.0 | 0.00 | 0.00 | 0.00 | 39 | 1015.4 |
| 20260903211003 | 68 | 252 | 4.0 | 13.0 | 0.00 | 0.00 | 0.00 | 39 | 1015.2 |
| 20260903210903 | 68 | 250 | 4.0 | 13.0 | 0.00 | 0.00 | 0.00 | 39 | 1015.3 |
| 20260903210803 | 68 | 245 | 4.0 | 13.0 | 0.00 | 0.00 | 0.00 | 39 | 1015.2 |
| 20260903210703 | 68 | 235 | 5.0 | 13.0 | 0.00 | 0.00 | 0.00 | 39 | 1015.0 |
| 20260903210603 | 67 | 228 | 7.0 | 13.0 | 0.00 | 0.00 | 0.00 | 38 | 1015.2 |
| 20260903210503 | 68 | 234 | 7.0 | 13.0 | 0.00 | 0.00 | 0.00 | 39 | 1015.3 |
| 20260903210303 | 68 | 242 | 8.0 | 13.0 | 0.00 | 0.00 | 0.00 | 39 | 1015.3 |
| 20260903210203 | 68 | 249 | 7.0 | 11.0 | 0.00 | 0.00 | 0.00 | 39 | 1015.3 |
| 20260903210103 | 68 | 251 | 7.0 | 11.0 | 0.00 | 0.00 | 0.00 | 39 | 1015.5 |
| 20260903210003 | 68 | 252 | 7.0 | 11.0 | 0.00 | 0.00 | 0.00 | 39 | 1015.2 |
| 20260903205903 | 68 | 241 | 4.0 | 13.0 | 0.00 | 0.00 | 0.00 | 39 | 1015.3 |
| 20260903205803 | 68 | 235 | 4.0 | 13.0 | 0.00 | 0.00 | 0.00 | 39 | 1015.1 |
| 20260903205703 | 68 | 229 | 5.0 | 13.0 | 0.00 | 0.00 | 0.00 | 39 | 1015.4 |
| 20260903205603 | 68 | 223 | 4.0 | 13.0 | 0.00 | 0.00 | 0.00 | 39 | 1015.0 |
| 20260903205518 | 68 | 212 | 4.0 | 13.0 | 0.00 | 0.00 | 0.00 | 39 | 1015.4 |
| 20260903205503 | 68 | 210 | 4.0 | 13.0 | 0.00 | 0.00 | 0.00 | 39 | 1015.3 |
| 20260903205408 | 68 | 212 | 8.0 | 13.0 | 0.00 | 0.00 | 0.00 | 39 | 1015.5 |
| 20260903205203 | 68 | 217 | 6.0 | 9.0 | 0.00 | 0.00 | 0.00 | 39 | 1015.4 |
| 20260903205103 | 68 | 226 | 4.0 | 9.0 | 0.00 | 0.00 | 0.00 | 40 | 1015.3 |
| 20260903205003 | 68 | 239 | 4.0 | 9.0 | 0.00 | 0.00 | 0.00 | 39 | 1015.3 |
| 20260903204903 | 68 | 248 | 4.0 | 8.0 | 0.00 | 0.00 | 0.00 | 40 | 1015.3 |
| 20260903204803 | 68 | 238 | 4.0 | 8.0 | 0.00 | 0.00 | 0.00 | 39 | 1015.2 |
| 20260903204703 | 68 | 235 | 4.0 | 11.0 | 0.00 | 0.00 | 0.00 | 39 | 1015.2 |
| 20260903204603 | 68 | 216 | 4.0 | 11.0 | 0.00 | 0.00 | 0.00 | 39 | 1015.3 |
| 20260903204503 | 68 | 207 | 4.0 | 11.0 | 0.00 | 0.00 | 0.00 | 39 | 1015.3 |
| 20260903204403 | 68 | 173 | 4.0 | 11.0 | 0.00 | 0.00 | 0.00 | 39 | 1015.3 |
| 20260903204303 | 68 | 194 | 3.0 | 11.0 | 0.00 | 0.00 | 0.00 | 39 | 1015.3 |
| 20260903204203 | 68 | 202 | 5.0 | 11.0 | 0.00 | 0.00 | 0.00 | 39 | 1015.3 |
| 20260903204103 | 68 | 217 | 4.0 | 11.0 | 0.00 | 0.00 | 0.00 | 39 | 1015.1 |
| 20260903204003 | 68 | 233 | 5.0 | 11.0 | 0.00 | 0.00 | 0.00 | 39 | 1015.3 |
| 20260903203903 | 68 | 243 | 4.0 | 11.0 | 0.00 | 0.00 | 0.00 | 39 | 1015.1 |
| 20260903203803 | 68 | 240 | 4.0 | 11.0 | 0.00 | 0.00 | 0.00 | 39 | 1015.2 |
| 20260903203703 | 68 | 240 | 4.0 | 13.0 | 0.00 | 0.00 | 0.00 | 39 | 1015.2 |
| 20260903203603 | 68 | 243 | 7.0 | 13.0 | 0.00 | 0.00 | 0.00 | 39 | 1015.0 |
| 20260903203503 | 68 | 236 | 5.0 | 13.0 | 0.00 | 0.00 | 0.00 | 39 | 1015.2 |
| 20260903203403 | 68 | 232 | 3.0 | 13.0 | 0.00 | 0.00 | 0.00 | 39 | 1014.9 |
| 20260903203303 | 68 | 240 | 7.0 | 14.0 | 0.00 | 0.00 | 0.00 | 39 | 1015.0 |
| 20260903203203 | 68 | 239 | 7.0 | 14.0 | 0.00 | 0.00 | 0.00 | 39 | 1015.0 |
| 20260903203103 | 68 | 243 | 6.0 | 14.0 | 0.00 | 0.00 | 0.00 | 39 | 1015.2 |
| 20260903203017 | 68 | 248 | 8.0 | 14.0 | 0.00 | 0.00 | 0.00 | 39 | 1015.1 |
| 20260903202903 | 68 | 247 | 8.0 | 14.0 | 0.00 | 0.00 | 0.00 | 39 | 1015.0 |
| 20260903202703 | 69 | 225 | 4.0 | 15.0 | 0.00 | 0.00 | 0.00 | 39 | 1015.1 |
| 20260903202603 | 68 | 224 | 3.0 | 15.0 | 0.00 | 0.00 | 0.00 | 39 | 1015.1 |
| 20260903202503 | 68 | 228 | 8.0 | 15.0 | 0.00 | 0.00 | 0.00 | 39 | 1015.0 |
| 20260903202403 | 68 | 232 | 8.0 | 15.0 | 0.00 | 0.00 | 0.00 | 39 | 1015.2 |
| 20260903202306 | 69 | 243 | 5.0 | 13.0 | 0.00 | 0.00 | 0.00 | 39 | 1015.2 |
| 20260903202203 | 69 | 249 | 8.0 | 13.0 | 0.00 | 0.00 | 0.00 | 39 | 1015.1 |
| 20260903202103 | 69 | 250 | 6.0 | 13.0 | 0.00 | 0.00 | 0.00 | 40 | 1015.0 |
| 20260903202003 | 69 | 257 | 6.0 | 13.0 | 0.00 | 0.00 | 0.00 | 40 | 1015.1 |
| 20260903201903 | 69 | 254 | 4.0 | 11.0 | 0.00 | 0.00 | 0.00 | 40 | 1014.9 |
| 20260903201803 | 69 | 252 | 6.0 | 11.0 | 0.00 | 0.00 | 0.00 | 40 | 1015.1 |
| 20260903201703 | 69 | 252 | 4.0 | 11.0 | 0.00 | 0.00 | 0.00 | 41 | 1015.2 |
| 20260903201603 | 69 | 239 | 5.0 | 11.0 | 0.00 | 0.00 | 0.00 | 41 | 1015.1 |
| 20260903201503 | 69 | 221 | 6.0 | 13.0 | 0.00 | 0.00 | 0.00 | 41 | 1015.0 |
| 20260903201403 | 69 | 225 | 6.0 | 13.0 | 0.00 | 0.00 | 0.00 | 41 | 1015.0 |
| 20260903201303 | 69 | 225 | 4.0 | 13.0 | 0.00 | 0.00 | 0.00 | 42 | 1014.9 |
| 20260903201203 | 68 | 217 | 4.0 | 13.0 | 0.00 | 0.00 | 0.00 | 42 | 1014.9 |
| 20260903201003 | 68 | 214 | 8.0 | 13.0 | 0.00 | 0.00 | 0.00 | 41 | 1014.8 |
| 20260903200917 | 69 | 185 | 7.0 | 11.0 | 0.00 | 0.00 | 0.00 | 41 | 1015.1 |
| 20260903200903 | 69 | 173 | 7.0 | 11.0 | 0.00 | 0.00 | 0.00 | 41 | 1015.1 |
| 20260903200803 | 69 | 166 | 4.0 | 11.0 | 0.00 | 0.00 | 0.00 | 41 | 1014.9 |
| 20260903200617 | 69 | 199 | 4.0 | 11.0 | 0.00 | 0.00 | 0.00 | 41 | 1015.0 |
| 20260903200603 | 69 | 200 | 4.0 | 11.0 | 0.00 | 0.00 | 0.00 | 41 | 1015.0 |
| 20260903200503 | 70 | 211 | 4.0 | 11.0 | 0.00 | 0.00 | 0.00 | 41 | 1015.1 |
| 20260903200303 | 69 | 220 | 4.0 | 11.0 | 0.00 | 0.00 | 0.00 | 40 | 1015.0 |
| 20260903200203 | 69 | 215 | 4.0 | 11.0 | 0.00 | 0.00 | 0.00 | 40 | 1015.0 |
| 20260903200003 | 69 | 206 | 5.0 | 11.0 | 0.00 | 0.00 | 0.00 | 39 | 1014.9 |
| 20260903195903 | 69 | 220 | 5.0 | 11.0 | 0.00 | 0.00 | 0.00 | 39 | 1014.9 |
| 20260903195703 | 69 | 245 | 5.0 | 11.0 | 0.00 | 0.00 | 0.00 | 39 | 1015.0 |
| 20260903195603 | 69 | 244 | 6.0 | 9.0 | 0.00 | 0.00 | 0.00 | 38 | 1014.9 |
| 20260903195518 | 69 | 243 | 4.0 | 15.0 | 0.00 | 0.00 | 0.00 | 39 | 1014.9 |
| 20260903195503 | 69 | 245 | 5.0 | 15.0 | 0.00 | 0.00 | 0.00 | 39 | 1014.9 |
| 20260903195403 | 69 | 246 | 6.0 | 15.0 | 0.00 | 0.00 | 0.00 | 38 | 1014.9 |
| 20260903195203 | 69 | 236 | 3.0 | 15.0 | 0.00 | 0.00 | 0.00 | 38 | 1015.1 |
| 20260903195103 | 69 | 225 | 10.0 | 15.0 | 0.00 | 0.00 | 0.00 | 38 | 1014.9 |
| 20260903195003 | 69 | 225 | 5.0 | 14.0 | 0.00 | 0.00 | 0.00 | 38 | 1015.0 |
| 20260903194917 | 69 | 223 | 8.0 | 14.0 | 0.00 | 0.00 | 0.00 | 39 | 1015.1 |
| 20260903194903 | 69 | 221 | 8.0 | 14.0 | 0.00 | 0.00 | 0.00 | 39 | 1015.1 |
| 20260903194803 | 69 | 217 | 8.0 | 14.0 | 0.00 | 0.00 | 0.00 | 39 | 1015.1 |
| 20260903194617 | 69 | 229 | 5.0 | 11.0 | 0.00 | 0.00 | 0.00 | 39 | 1014.8 |
| 20260903194603 | 69 | 232 | 5.0 | 11.0 | 0.00 | 0.00 | 0.00 | 39 | 1014.8 |
| 20260903194503 | 70 | 238 | 3.0 | 11.0 | 0.00 | 0.00 | 0.00 | 38 | 1014.8 |
| 20260903194303 | 69 | 229 | 5.0 | 13.0 | 0.00 | 0.00 | 0.00 | 39 | 1015.0 |
| 20260903194203 | 69 | 229 | 4.0 | 13.0 | 0.00 | 0.00 | 0.00 | 39 | 1015.0 |
| 20260903194103 | 69 | 222 | 6.0 | 13.0 | 0.00 | 0.00 | 0.00 | 39 | 1015.0 |
| 20260903194003 | 69 | 218 | 5.0 | 13.0 | 0.00 | 0.00 | 0.00 | 39 | 1015.0 |
| 20260903193903 | 69 | 209 | 7.0 | 13.0 | 0.00 | 0.00 | 0.00 | 38 | 1014.9 |
| 20260903193803 | 69 | 211 | 4.0 | 13.0 | 0.00 | 0.00 | 0.00 | 39 | 1015.0 |
| 20260903193703 | 69 | 218 | 5.0 | 13.0 | 0.00 | 0.00 | 0.00 | 40 | 1015.0 |
| 20260903193603 | 69 | 219 | 9.0 | 13.0 | 0.00 | 0.00 | 0.00 | 40 | 1014.9 |
| 20260903193503 | 69 | 213 | 6.0 | 13.0 | 0.00 | 0.00 | 0.00 | 40 | 1014.9 |
| 20260903193403 | 70 | 215 | 4.0 | 13.0 | 0.00 | 0.00 | 0.00 | 41 | 1014.9 |
| 20260903193303 | 69 | 209 | 4.0 | 13.0 | 0.00 | 0.00 | 0.00 | 41 | 1014.9 |
| 20260903193203 | 69 | 213 | 4.0 | 13.0 | 0.00 | 0.00 | 0.00 | 41 | 1014.8 |
| 20260903193103 | 68 | 208 | 7.0 | 15.0 | 0.00 | 0.00 | 0.00 | 41 | 1015.0 |
| 20260903193003 | 69 | 207 | 5.0 | 15.0 | 0.00 | 0.00 | 0.00 | 42 | 1014.8 |
| 20260903192903 | 69 | 210 | 5.0 | 15.0 | 0.00 | 0.00 | 0.00 | 42 | 1014.9 |
| 20260903192803 | 69 | 210 | 7.0 | 15.0 | 0.00 | 0.00 | 0.00 | 42 | 1014.8 |
| 20260903192718 | 69 | 202 | 7.0 | 15.0 | 0.00 | 0.00 | 0.00 | 41 | 1015.1 |
| 20260903192703 | 68 | 199 | 9.0 | 15.0 | 0.00 | 0.00 | 0.00 | 41 | 1014.8 |
| 20260903192617 | 69 | 198 | 8.0 | 15.0 | 0.00 | 0.00 | 0.00 | 41 | 1014.8 |
| 20260903192306 | 69 | 207 | 4.0 | 13.0 | 0.00 | 0.00 | 0.00 | 41 | 1015.1 |
| 20260903192217 | 69 | 232 | 4.0 | 15.0 | 0.00 | 0.00 | 0.00 | 40 | 1014.9 |
| 20260903192203 | 69 | 233 | 4.0 | 15.0 | 0.00 | 0.00 | 0.00 | 40 | 1014.9 |
| 20260903192103 | 69 | 231 | 4.0 | 15.0 | 0.00 | 0.00 | 0.00 | 41 | 1014.7 |
| 20260903191904 | 69 | 239 | 4.0 | 15.0 | 0.00 | 0.00 | 0.00 | 40 | 1014.7 |
| 20260903191803 | 69 | 244 | 7.0 | 15.0 | 0.00 | 0.00 | 0.00 | 41 | 1015.1 |
| 20260903191703 | 69 | 237 | 9.0 | 15.0 | 0.00 | 0.00 | 0.00 | 40 | 1015.0 |
| 20260903191603 | 70 | 240 | 6.0 | 13.0 | 0.00 | 0.00 | 0.00 | 40 | 1015.0 |
| 20260903191503 | 69 | 240 | 5.0 | 13.0 | 0.00 | 0.00 | 0.00 | 40 | 1014.8 |
| 20260903191403 | 69 | 240 | 8.0 | 14.0 | 0.00 | 0.00 | 0.00 | 39 | 1014.7 |
| 20260903191317 | 69 | 243 | 5.0 | 14.0 | 0.00 | 0.00 | 0.00 | 39 | 1014.8 |
| 20260903191303 | 69 | 246 | 5.0 | 14.0 | 0.00 | 0.00 | 0.00 | 39 | 1014.8 |
| 20260903191203 | 69 | 255 | 7.0 | 17.0 | 0.00 | 0.00 | 0.00 | 39 | 1014.7 |
| 20260903191003 | 69 | 250 | 7.0 | 17.0 | 0.00 | 0.00 | 0.00 | 39 | 1014.8 |
| 20260903190903 | 69 | 252 | 7.0 | 17.0 | 0.00 | 0.00 | 0.00 | 38 | 1014.9 |
| 20260903190803 | 69 | 247 | 6.0 | 17.0 | 0.00 | 0.00 | 0.00 | 38 | 1014.7 |
| 20260903190603 | 69 | 250 | 8.0 | 16.0 | 0.00 | 0.00 | 0.00 | 38 | 1015.2 |
| 20260903190503 | 69 | 249 | 9.0 | 17.0 | 0.00 | 0.00 | 0.00 | 38 | 1014.8 |
| 20260903190403 | 69 | 249 | 8.0 | 17.0 | 0.00 | 0.00 | 0.00 | 38 | 1014.8 |
| 20260903190303 | 69 | 242 | 10.0 | 17.0 | 0.00 | 0.00 | 0.00 | 38 | 1014.9 |
| 20260903190217 | 69 | 235 | 8.0 | 17.0 | 0.00 | 0.00 | 0.00 | 38 | 1015.0 |
| 20260903185903 | 69 | 206 | 10.0 | 17.0 | 0.00 | 0.00 | 0.00 | 38 | 1014.8 |
| 20260903185803 | 69 | 193 | 11.0 | 17.0 | 0.00 | 0.00 | 0.00 | 38 | 1015.1 |
| 20260903185703 | 70 | 182 | 5.0 | 11.0 | 0.00 | 0.00 | 0.00 | 38 | 1015.1 |
| 20260903185603 | 70 | 187 | 3.0 | 15.0 | 0.00 | 0.00 | 0.00 | 38 | 1014.8 |
| 20260903185503 | 69 | 187 | 5.0 | 15.0 | 0.00 | 0.00 | 0.00 | 38 | 1014.9 |
| 20260903185403 | 69 | 191 | 8.0 | 15.0 | 0.00 | 0.00 | 0.00 | 38 | 1015.0 |
| 20260903185306 | 69 | 198 | 5.0 | 15.0 | 0.00 | 0.00 | 0.00 | 38 | 1014.9 |
| 20260903185203 | 69 | 204 | 7.0 | 16.0 | 0.00 | 0.00 | 0.00 | 38 | 1015.2 |
| 20260903185103 | 70 | 193 | 4.0 | 16.0 | 0.00 | 0.00 | 0.00 | 38 | 1015.1 |
| 20260903185018 | 69 | 207 | 3.0 | 16.0 | 0.00 | 0.00 | 0.00 | 38 | 1015.0 |
| 20260903185005 | 69 | 209 | 3.0 | 16.0 | 0.00 | 0.00 | 0.00 | 38 | 1015.0 |
| 20260903184917 | 69 | 203 | 8.0 | 16.0 | 0.00 | 0.00 | 0.00 | 38 | 1015.2 |
| 20260903184903 | 69 | 196 | 8.0 | 16.0 | 0.00 | 0.00 | 0.00 | 38 | 1015.2 |
| 20260903184603 | 69 | 200 | 6.0 | 13.0 | 0.00 | 0.00 | 0.00 | 38 | 1015.1 |
| 20260903184503 | 69 | 194 | 4.0 | 13.0 | 0.00 | 0.00 | 0.00 | 39 | 1015.0 |
| 20260903184418 | 69 | 198 | 5.0 | 13.0 | 0.00 | 0.00 | 0.00 | 38 | 1015.0 |
| 20260903184403 | 69 | 202 | 5.0 | 13.0 | 0.00 | 0.00 | 0.00 | 38 | 1015.0 |
| 20260903184310 | 69 | 210 | 5.0 | 13.0 | 0.00 | 0.00 | 0.00 | 38 | 1015.3 |
| 20260903184103 | 69 | 204 | 8.0 | 13.0 | 0.00 | 0.00 | 0.00 | 38 | 1015.0 |
| 20260903184004 | 69 | 202 | 7.0 | 14.0 | 0.00 | 0.00 | 0.00 | 38 | 1015.1 |
| 20260903183903 | 69 | 211 | 5.0 | 14.0 | 0.00 | 0.00 | 0.00 | 39 | 1015.0 |
| 20260903183817 | 68 | 222 | 8.0 | 14.0 | 0.00 | 0.00 | 0.00 | 38 | 1015.2 |
| 20260903183803 | 68 | 225 | 8.0 | 14.0 | 0.00 | 0.00 | 0.00 | 38 | 1015.2 |
| 20260903183703 | 69 | 243 | 5.0 | 14.0 | 0.00 | 0.00 | 0.00 | 38 | 1015.2 |
| 20260903183503 | 69 | 260 | 6.0 | 11.0 | 0.00 | 0.00 | 0.00 | 39 | 1015.3 |
| 20260903183418 | 69 | 257 | 8.0 | 11.0 | 0.00 | 0.00 | 0.00 | 38 | 1015.4 |
| 20260903183403 | 69 | 255 | 8.0 | 11.0 | 0.00 | 0.00 | 0.00 | 38 | 1015.4 |
| 20260903183303 | 69 | 245 | 5.0 | 11.0 | 0.00 | 0.00 | 0.00 | 39 | 1015.1 |
| 20260903183217 | 69 | 237 | 5.0 | 11.0 | 0.00 | 0.00 | 0.00 | 40 | 1015.1 |
| 20260903183103 | 68 | 228 | 6.0 | 11.0 | 0.00 | 0.00 | 0.00 | 39 | 1015.1 |
| 20260903182903 | 68 | 218 | 8.0 | 14.0 | 0.00 | 0.00 | 0.00 | 39 | 1015.0 |
| 20260903182803 | 69 | 218 | 8.0 | 14.0 | 0.00 | 0.00 | 0.00 | 38 | 1015.0 |
| 20260903182704 | 69 | 219 | 6.0 | 14.0 | 0.00 | 0.00 | 0.00 | 39 | 1015.3 |
| 20260903182616 | 69 | 222 | 4.0 | 14.0 | 0.00 | 0.00 | 0.00 | 38 | 1015.1 |
| 20260903182603 | 69 | 224 | 4.0 | 14.0 | 0.00 | 0.00 | 0.00 | 38 | 1015.1 |
| 20260903182503 | 68 | 229 | 4.0 | 14.0 | 0.00 | 0.00 | 0.00 | 39 | 1015.1 |
| 20260903182306 | 68 | 251 | 5.0 | 15.0 | 0.00 | 0.00 | 0.00 | 38 | 1015.3 |
| 20260903182203 | 69 | 252 | 4.0 | 15.0 | 0.00 | 0.00 | 0.00 | 38 | 1015.3 |
| 20260903182117 | 68 | 257 | 5.0 | 15.0 | 0.00 | 0.00 | 0.00 | 38 | 1015.5 |
| 20260903182103 | 68 | 261 | 5.0 | 15.0 | 0.00 | 0.00 | 0.00 | 38 | 1015.5 |
| 20260903182003 | 68 | 260 | 4.0 | 16.0 | 0.00 | 0.00 | 0.00 | 37 | 1015.5 |
| 20260903181803 | 69 | 250 | 7.0 | 16.0 | 0.00 | 0.00 | 0.00 | 36 | 1015.5 |
| 20260903181703 | 69 | 254 | 6.0 | 16.0 | 0.00 | 0.00 | 0.00 | 37 | 1015.4 |
| 20260903181604 | 68 | 247 | 10.0 | 16.0 | 0.00 | 0.00 | 0.00 | 37 | 1015.1 |
| 20260903181503 | 68 | 241 | 10.0 | 16.0 | 0.00 | 0.00 | 0.00 | 38 | 1015.2 |
| 20260903181403 | 68 | 241 | 8.0 | 16.0 | 0.00 | 0.00 | 0.00 | 39 | 1015.3 |
| 20260903181303 | 68 | 241 | 11.0 | 16.0 | 0.00 | 0.00 | 0.00 | 38 | 1015.3 |
| 20260903181203 | 68 | 237 | 10.0 | 16.0 | 0.00 | 0.00 | 0.00 | 39 | 1015.3 |
| 20260903181103 | 69 | 223 | 7.0 | 14.0 | 0.00 | 0.00 | 0.00 | 39 | 1015.2 |
| 20260903181003 | 69 | 210 | 8.0 | 14.0 | 0.00 | 0.00 | 0.00 | 40 | 1015.4 |
| 20260903180904 | 68 | 212 | 5.0 | 15.0 | 0.00 | 0.00 | 0.00 | 40 | 1015.3 |
| 20260903180803 | 68 | 217 | 6.0 | 15.0 | 0.00 | 0.00 | 0.00 | 40 | 1015.4 |
| 20260903180703 | 68 | 217 | 5.0 | 15.0 | 0.00 | 0.00 | 0.00 | 40 | 1015.3 |
| 20260903180603 | 68 | 238 | 5.0 | 16.0 | 0.00 | 0.00 | 0.00 | 41 | 1015.3 |
| 20260903180503 | 68 | 249 | 8.0 | 16.0 | 0.00 | 0.00 | 0.00 | 40 | 1015.4 |
| 20260903180403 | 68 | 250 | 8.0 | 16.0 | 0.00 | 0.00 | 0.00 | 41 | 1015.2 |
| 20260903180303 | 69 | 248 | 5.0 | 16.0 | 0.00 | 0.00 | 0.00 | 40 | 1015.3 |
| 20260903180203 | 68 | 251 | 4.0 | 16.0 | 0.00 | 0.00 | 0.00 | 40 | 1015.2 |
| 20260903180003 | 68 | 254 | 6.0 | 11.0 | 0.00 | 0.00 | 0.00 | 40 | 1015.4 |
| 20260903175903 | 69 | 276 | 3.0 | 11.0 | 0.00 | 0.00 | 0.00 | 40 | 1015.3 |
| 20260903175803 | 69 | 274 | 4.0 | 11.0 | 0.00 | 0.00 | 0.00 | 40 | 1015.4 |
| 20260903175703 | 69 | 264 | 4.0 | 11.0 | 0.00 | 0.00 | 0.00 | 40 | 1015.3 |
| 20260903175603 | 68 | 256 | 4.0 | 11.0 | 0.00 | 0.00 | 0.00 | 40 | 1015.5 |
| 20260903175517 | 68 | 241 | 7.0 | 11.0 | 0.00 | 0.00 | 0.00 | 40 | 1015.5 |
| 20260903175503 | 68 | 237 | 7.0 | 11.0 | 0.00 | 0.00 | 0.00 | 40 | 1015.4 |
| 20260903175403 | 68 | 227 | 4.0 | 11.0 | 0.00 | 0.00 | 0.00 | 41 | 1015.4 |
| 20260903175203 | 68 | 225 | 6.0 | 11.0 | 0.00 | 0.00 | 0.00 | 41 | 1015.2 |
| 20260903175103 | 68 | 229 | 5.0 | 11.0 | 0.00 | 0.00 | 0.00 | 41 | 1015.4 |
| 20260903175003 | 68 | 237 | 8.0 | 13.0 | 0.00 | 0.00 | 0.00 | 41 | 1015.3 |
| 20260903174918 | 68 | 231 | 4.0 | 14.0 | 0.00 | 0.00 | 0.00 | 41 | 1015.2 |
| 20260903174903 | 68 | 229 | 4.0 | 14.0 | 0.00 | 0.00 | 0.00 | 41 | 1015.2 |
| 20260903174803 | 68 | 234 | 4.0 | 14.0 | 0.00 | 0.00 | 0.00 | 41 | 1015.3 |
| 20260903174618 | 68 | 230 | 6.0 | 14.0 | 0.00 | 0.00 | 0.00 | 41 | 1015.2 |
| 20260903174603 | 68 | 227 | 6.0 | 14.0 | 0.00 | 0.00 | 0.00 | 41 | 1015.2 |
| 20260903174503 | 68 | 222 | 8.0 | 14.0 | 0.00 | 0.00 | 0.00 | 41 | 1015.3 |
| 20260903174303 | 68 | 219 | 6.0 | 14.0 | 0.00 | 0.00 | 0.00 | 42 | 1015.2 |
| 20260903174203 | 68 | 225 | 9.0 | 14.0 | 0.00 | 0.00 | 0.00 | 42 | 1015.3 |
| 20260903174103 | 69 | 233 | 5.0 | 13.0 | 0.00 | 0.00 | 0.00 | 42 | 1015.5 |
| 20260903174003 | 68 | 231 | 5.0 | 13.0 | 0.00 | 0.00 | 0.00 | 42 | 1015.3 |
| 20260903173803 | 67 | 235 | 4.0 | 13.0 | 0.00 | 0.00 | 0.00 | 43 | 1015.2 |
| 20260903173705 | 67 | 227 | 6.0 | 13.0 | 0.00 | 0.00 | 0.00 | 44 | 1015.3 |
| 20260903173603 | 67 | 207 | 6.0 | 13.0 | 0.00 | 0.00 | 0.00 | 43 | 1015.2 |
| 20260903173503 | 67 | 219 | 7.0 | 13.0 | 0.00 | 0.00 | 0.00 | 43 | 1015.2 |
| 20260903173403 | 67 | 208 | 5.0 | 11.0 | 0.00 | 0.00 | 0.00 | 43 | 1015.2 |
| 20260903173303 | 67 | 215 | 4.0 | 11.0 | 0.00 | 0.00 | 0.00 | 43 | 1015.4 |
| 20260903173103 | 67 | 224 | 6.0 | 11.0 | 0.00 | 0.00 | 0.00 | 43 | 1015.4 |
| 20260903173003 | 67 | 218 | 4.0 | 11.0 | 0.00 | 0.00 | 0.00 | 43 | 1015.3 |
| 20260903172903 | 67 | 233 | 7.0 | 14.0 | 0.00 | 0.00 | 0.00 | 43 | 1015.4 |
| 20260903172803 | 67 | 244 | 7.0 | 14.0 | 0.00 | 0.00 | 0.00 | 43 | 1015.3 |
| 20260903172703 | 67 | 242 | 5.0 | 14.0 | 0.00 | 0.00 | 0.00 | 43 | 1015.5 |
| 20260903172603 | 67 | 251 | 4.0 | 14.0 | 0.00 | 0.00 | 0.00 | 44 | 1015.3 |
| 20260903172503 | 67 | 255 | 7.0 | 14.0 | 0.00 | 0.00 | 0.00 | 44 | 1015.3 |
| 20260903172403 | 67 | 248 | 8.0 | 14.0 | 0.00 | 0.00 | 0.00 | 43 | 1015.2 |
| 20260903172306 | 68 | 240 | 6.0 | 13.0 | 0.00 | 0.00 | 0.00 | 43 | 1015.3 |
| 20260903172203 | 68 | 232 | 4.0 | 14.0 | 0.00 | 0.00 | 0.00 | 43 | 1015.2 |
| 20260903172103 | 68 | 224 | 4.0 | 14.0 | 0.00 | 0.00 | 0.00 | 43 | 1015.0 |
| 20260903172003 | 67 | 215 | 4.0 | 14.0 | 0.00 | 0.00 | 0.00 | 43 | 1015.2 |
| 20260903171903 | 68 | 212 | 5.0 | 14.0 | 0.00 | 0.00 | 0.00 | 43 | 1015.4 |
| 20260903171803 | 67 | 207 | 8.0 | 14.0 | 0.00 | 0.00 | 0.00 | 43 | 1015.4 |
| 20260903171717 | 68 | 219 | 8.0 | 14.0 | 0.00 | 0.00 | 0.00 | 42 | 1015.4 |
| 20260903171703 | 68 | 220 | 8.0 | 14.0 | 0.00 | 0.00 | 0.00 | 42 | 1015.4 |
| 20260903171603 | 68 | 222 | 5.0 | 11.0 | 0.00 | 0.00 | 0.00 | 43 | 1015.3 |
| 20260903171403 | 68 | 238 | 8.0 | 11.0 | 0.00 | 0.00 | 0.00 | 42 | 1015.3 |
| 20260903171303 | 68 | 237 | 3.0 | 11.0 | 0.00 | 0.00 | 0.00 | 42 | 1015.3 |
| 20260903171203 | 68 | 223 | 5.0 | 11.0 | 0.00 | 0.00 | 0.00 | 43 | 1015.4 |
| 20260903171103 | 68 | 220 | 6.0 | 11.0 | 0.00 | 0.00 | 0.00 | 43 | 1015.3 |
| 20260903171005 | 68 | 211 | 4.0 | 11.0 | 0.00 | 0.00 | 0.00 | 43 | 1015.2 |
| 20260903170903 | 68 | 207 | 6.0 | 11.0 | 0.00 | 0.00 | 0.00 | 43 | 1015.4 |
| 20260903170809 | 68 | 219 | 5.0 | 11.0 | 0.00 | 0.00 | 0.00 | 43 | 1015.5 |
| 20260903170703 | 68 | 229 | 8.0 | 11.0 | 0.00 | 0.00 | 0.00 | 43 | 1015.4 |
| 20260903170603 | 69 | 229 | 8.0 | 11.0 | 0.00 | 0.00 | 0.00 | 42 | 1015.3 |
| 20260903170504 | 69 | 230 | 8.0 | 11.0 | 0.00 | 0.00 | 0.00 | 42 | 1015.8 |
| 20260903170405 | 69 | 228 | 6.0 | 11.0 | 0.00 | 0.00 | 0.00 | 43 | 1015.6 |
| 20260903170318 | 69 | 209 | 5.0 | 11.0 | 0.00 | 0.00 | 0.00 | 42 | 1015.3 |
| 20260903170303 | 69 | 207 | 6.0 | 9.0 | 0.00 | 0.00 | 0.00 | 43 | 1015.6 |
| 20260903170203 | 69 | 205 | 6.0 | 9.0 | 0.00 | 0.00 | 0.00 | 43 | 1015.3 |
| 20260903170003 | 69 | 209 | 5.0 | 14.0 | 0.00 | 0.00 | 0.00 | 43 | 1015.3 |
| 20260903165903 | 69 | 204 | 4.0 | 15.0 | 0.00 | 0.00 | 0.00 | 44 | 1015.6 |
| 20260903165703 | 69 | 220 | 5.0 | 15.0 | 0.00 | 0.00 | 0.00 | 45 | 1015.6 |
| 20260903165613 | 68 | 229 | 8.0 | 15.0 | 0.00 | 0.00 | 0.00 | 45 | 1015.4 |
| 20260903165503 | 68 | 230 | 8.0 | 15.0 | 0.00 | 0.00 | 0.00 | 45 | 1015.5 |
| 20260903165403 | 69 | 248 | 6.0 | 13.0 | 0.00 | 0.00 | 0.00 | 44 | 1015.6 |
| 20260903165305 | 69 | 260 | 2.0 | 13.0 | 0.00 | 0.00 | 0.00 | 45 | 1015.6 |
| 20260903165203 | 69 | 265 | 4.0 | 13.0 | 0.00 | 0.00 | 0.00 | 45 | 1015.3 |
| 20260903165103 | 69 | 235 | 4.0 | 13.0 | 0.00 | 0.00 | 0.00 | 44 | 1015.4 |
| 20260903165003 | 69 | 223 | 4.0 | 13.0 | 0.00 | 0.00 | 0.00 | 44 | 1015.3 |
| 20260903164903 | 69 | 216 | 5.0 | 11.0 | 0.00 | 0.00 | 0.00 | 44 | 1015.4 |
| 20260903164803 | 69 | 216 | 4.0 | 15.0 | 0.00 | 0.00 | 0.00 | 43 | 1015.5 |
| 20260903164703 | 69 | 218 | 2.0 | 16.0 | 0.00 | 0.00 | 0.00 | 44 | 1015.5 |
| 20260903164603 | 69 | 233 | 5.0 | 16.0 | 0.00 | 0.00 | 0.00 | 43 | 1015.4 |
| 20260903164503 | 69 | 239 | 4.0 | 16.0 | 0.00 | 0.00 | 0.00 | 43 | 1015.4 |
| 20260903164403 | 68 | 240 | 8.0 | 16.0 | 0.00 | 0.00 | 0.00 | 44 | 1015.7 |
| 20260903164303 | 68 | 245 | 9.0 | 16.0 | 0.00 | 0.00 | 0.00 | 43 | 1015.6 |
| 20260903164203 | 69 | 237 | 7.0 | 14.0 | 0.00 | 0.00 | 0.00 | 43 | 1015.4 |
| 20260903164103 | 69 | 224 | 7.0 | 14.0 | 0.00 | 0.00 | 0.00 | 43 | 1015.7 |
| 20260903164017 | 68 | 223 | 4.0 | 11.0 | 0.00 | 0.00 | 0.00 | 43 | 1015.6 |
| 20260903164003 | 68 | 225 | 4.0 | 11.0 | 0.00 | 0.00 | 0.00 | 43 | 1015.6 |
| 20260903163903 | 68 | 243 | 6.0 | 11.0 | 0.00 | 0.00 | 0.00 | 44 | 1015.6 |
| 20260903163703 | 68 | 256 | 4.0 | 11.0 | 0.00 | 0.00 | 0.00 | 44 | 1015.6 |
| 20260903163603 | 68 | 256 | 4.0 | 11.0 | 0.00 | 0.00 | 0.00 | 44 | 1015.5 |
| 20260903163320 | 67 | 238 | 7.0 | 11.0 | 0.00 | 0.00 | 0.00 | 45 | 1015.9 |
| 20260903163303 | 67 | 234 | 7.0 | 11.0 | 0.00 | 0.00 | 0.00 | 45 | 1015.9 |
| 20260903163210 | 67 | 229 | 4.0 | 9.0 | 0.00 | 0.00 | 0.00 | 45 | 1015.7 |
| 20260903163003 | 66 | 231 | 4.0 | 11.0 | 0.00 | 0.00 | 0.00 | 47 | 1016.0 |
| 20260903162918 | 66 | 230 | 5.0 | 11.0 | 0.00 | 0.00 | 0.00 | 47 | 1015.7 |
| 20260903162903 | 66 | 229 | 5.0 | 11.0 | 0.00 | 0.00 | 0.00 | 47 | 1015.7 |
| 20260903162803 | 66 | 239 | 3.0 | 11.0 | 0.00 | 0.00 | 0.00 | 48 | 1016.0 |
| 20260903162603 | 65 | 238 | 8.0 | 11.0 | 0.00 | 0.00 | 0.00 | 48 | 1015.9 |
| 20260903162503 | 65 | 227 | 7.0 | 11.0 | 0.00 | 0.00 | 0.00 | 48 | 1016.1 |
| 20260903162403 | 65 | 211 | 3.0 | 11.0 | 0.00 | 0.00 | 0.00 | 49 | 1016.1 |
| 20260903162306 | 65 | 203 | 5.0 | 11.0 | 0.00 | 0.00 | 0.00 | 49 | 1016.0 |
| 20260903162203 | 65 | 198 | 5.0 | 11.0 | 0.00 | 0.00 | 0.00 | 49 | 1016.0 |
| 20260903162103 | 65 | 197 | 4.0 | 11.0 | 0.00 | 0.00 | 0.00 | 49 | 1015.8 |
| 20260903162003 | 65 | 204 | 5.0 | 11.0 | 0.00 | 0.00 | 0.00 | 50 | 1016.0 |
| 20260903161903 | 65 | 210 | 4.0 | 11.0 | 0.00 | 0.00 | 0.00 | 51 | 1016.1 |
| 20260903161816 | 65 | 207 | 4.0 | 13.0 | 0.00 | 0.00 | 0.00 | 51 | 1016.3 |
| 20260903161803 | 65 | 202 | 4.0 | 13.0 | 0.00 | 0.00 | 0.00 | 51 | 1016.3 |
| 20260903161703 | 65 | 201 | 2.0 | 13.0 | 0.00 | 0.00 | 0.00 | 51 | 1016.1 |
| 20260903161503 | 65 | 212 | 6.0 | 14.0 | 0.00 | 0.00 | 0.00 | 51 | 1016.4 |
| 20260903161417 | 65 | 220 | 5.0 | 14.0 | 0.00 | 0.00 | 0.00 | 52 | 1016.1 |
| 20260903161403 | 65 | 219 | 5.0 | 14.0 | 0.00 | 0.00 | 0.00 | 52 | 1016.1 |
| 20260903161303 | 65 | 228 | 7.0 | 14.0 | 0.00 | 0.00 | 0.00 | 52 | 1016.2 |
| 20260903161103 | 65 | 236 | 7.0 | 14.0 | 0.00 | 0.00 | 0.00 | 51 | 1016.3 |
| 20260903161003 | 65 | 245 | 7.0 | 11.0 | 0.00 | 0.00 | 0.00 | 51 | 1016.2 |
| 20260903160903 | 65 | 257 | 6.0 | 11.0 | 0.00 | 0.00 | 0.00 | 51 | 1016.3 |
| 20260903160803 | 66 | 255 | 4.0 | 11.0 | 0.00 | 0.00 | 0.00 | 51 | 1016.2 |
| 20260903160703 | 66 | 253 | 4.0 | 11.0 | 0.00 | 0.00 | 0.00 | 50 | 1016.2 |
| 20260903160603 | 66 | 251 | 6.0 | 11.0 | 0.00 | 0.00 | 0.00 | 50 | 1016.1 |
| 20260903160503 | 66 | 252 | 5.0 | 11.0 | 0.00 | 0.00 | 0.00 | 50 | 1016.0 |
| 20260903160403 | 66 | 252 | 4.0 | 11.0 | 0.00 | 0.00 | 0.00 | 49 | 1016.2 |
| 20260903160317 | 66 | 248 | 4.0 | 11.0 | 0.00 | 0.00 | 0.00 | 49 | 1016.1 |
| 20260903160303 | 66 | 245 | 7.0 | 11.0 | 0.00 | 0.00 | 0.00 | 49 | 1016.0 |
| 20260903160218 | 66 | 237 | 4.0 | 11.0 | 0.00 | 0.00 | 0.00 | 49 | 1016.0 |
| 20260903160203 | 66 | 236 | 4.0 | 11.0 | 0.00 | 0.00 | 0.00 | 49 | 1016.0 |
| 20260903155918 | 66 | 221 | 6.0 | 9.0 | 0.00 | 0.00 | 0.00 | 49 | 1016.0 |
| 20260903155903 | 66 | 218 | 5.0 | 9.0 | 0.00 | 0.00 | 0.00 | 49 | 1016.1 |
| 20260903155803 | 66 | 230 | 4.0 | 9.0 | 0.00 | 0.00 | 0.00 | 49 | 1016.3 |
| 20260903155603 | 66 | 248 | 2.0 | 7.0 | 0.00 | 0.00 | 0.00 | 49 | 1016.1 |
| 20260903155503 | 66 | 258 | 2.0 | 9.0 | 0.00 | 0.00 | 0.00 | 49 | 1016.1 |
| 20260903155417 | 66 | 252 | 2.0 | 9.0 | 0.00 | 0.00 | 0.00 | 50 | 1016.1 |
| 20260903155403 | 66 | 250 | 2.0 | 9.0 | 0.00 | 0.00 | 0.00 | 50 | 1016.1 |
| 20260903155306 | 66 | 251 | 4.0 | 9.0 | 0.00 | 0.00 | 0.00 | 50 | 1016.1 |
| 20260903155218 | 66 | 247 | 4.0 | 9.0 | 0.00 | 0.00 | 0.00 | 49 | 1016.1 |
| 20260903155103 | 65 | 242 | 7.0 | 9.0 | 0.00 | 0.00 | 0.00 | 49 | 1016.1 |
| 20260903154903 | 66 | 243 | 5.0 | 11.0 | 0.00 | 0.00 | 0.00 | 50 | 1016.1 |
| 20260903154803 | 66 | 250 | 2.0 | 13.0 | 0.00 | 0.00 | 0.00 | 51 | 1016.2 |
| 20260903154703 | 66 | 246 | 3.0 | 13.0 | 0.00 | 0.00 | 0.00 | 51 | 1016.1 |
| 20260903154617 | 65 | 250 | 6.0 | 13.0 | 0.00 | 0.00 | 0.00 | 51 | 1016.2 |
| 20260903154603 | 65 | 252 | 6.0 | 13.0 | 0.00 | 0.00 | 0.00 | 51 | 1016.2 |
| 20260903154504 | 65 | 257 | 7.0 | 13.0 | 0.00 | 0.00 | 0.00 | 51 | 1016.2 |
| 20260903154203 | 65 | 242 | 5.0 | 11.0 | 0.00 | 0.00 | 0.00 | 50 | 1016.2 |
| 20260903154116 | 66 | 243 | 4.0 | 11.0 | 0.00 | 0.00 | 0.00 | 50 | 1016.0 |
| 20260903154103 | 66 | 240 | 4.0 | 11.0 | 0.00 | 0.00 | 0.00 | 50 | 1016.0 |
| 20260903154003 | 66 | 232 | 5.0 | 11.0 | 0.00 | 0.00 | 0.00 | 51 | 1016.2 |
| 20260903153818 | 66 | 227 | 5.0 | 9.0 | 0.00 | 0.00 | 0.00 | 51 | 1016.1 |
| 20260903153803 | 66 | 230 | 5.0 | 9.0 | 0.00 | 0.00 | 0.00 | 51 | 1016.1 |
| 20260903153703 | 66 | 235 | 3.0 | 8.0 | 0.00 | 0.00 | 0.00 | 51 | 1016.2 |
| 20260903153503 | 65 | 237 | 3.0 | 7.0 | 0.00 | 0.00 | 0.00 | 54 | 1015.7 |
| 20260903153416 | 65 | 246 | 2.0 | 7.0 | 0.00 | 0.00 | 0.00 | 58 | 1016.0 |
| 20260903153403 | 65 | 249 | 2.0 | 7.0 | 0.00 | 0.00 | 0.00 | 58 | 1016.0 |
| 20260903153306 | 65 | 254 | 3.0 | 6.0 | 0.00 | 0.00 | 0.00 | 61 | 1015.9 |
| 20260903153103 | 65 | 271 | 2.0 | 4.0 | 0.00 | 0.00 | 0.00 | 62 | 1015.7 |
| 20260903153003 | 65 | 274 | 1.0 | 4.0 | 0.00 | 0.00 | 0.00 | 62 | 1015.6 |
| 20260903152903 | 65 | 266 | 1.0 | 4.0 | 0.00 | 0.00 | 0.00 | 62 | 1015.7 |
| 20260903152803 | 65 | 268 | 2.0 | 4.0 | 0.00 | 0.00 | 0.00 | 62 | 1015.7 |
| 20260903152703 | 65 | 272 | 3.0 | 8.0 | 0.00 | 0.00 | 0.00 | 63 | 1015.7 |
| 20260903152603 | 65 | 269 | 2.0 | 8.0 | 0.00 | 0.00 | 0.00 | 62 | 1015.9 |
| 20260903152503 | 65 | 269 | 3.0 | 8.0 | 0.00 | 0.00 | 0.00 | 62 | 1015.9 |
| 20260903152403 | 65 | 267 | 3.0 | 8.0 | 0.00 | 0.00 | 0.00 | 62 | 1016.0 |
| 20260903152306 | 65 | 269 | 3.0 | 8.0 | 0.00 | 0.00 | 0.00 | 62 | 1015.8 |
| 20260903152203 | 64 | 266 | 4.0 | 8.0 | 0.00 | 0.00 | 0.00 | 62 | 1015.8 |
| 20260903152103 | 64 | 266 | 4.0 | 7.0 | 0.00 | 0.00 | 0.00 | 61 | 1016.0 |
| 20260903152003 | 65 | 269 | 3.0 | 7.0 | 0.00 | 0.00 | 0.00 | 61 | 1016.2 |
| 20260903151903 | 65 | 282 | 2.0 | 4.0 | 0.00 | 0.00 | 0.00 | 61 | 1015.9 |
| 20260903151803 | 65 | 284 | 2.0 | 4.0 | 0.00 | 0.00 | 0.00 | 61 | 1015.8 |
| 20260903151703 | 65 | 298 | 3.0 | 6.0 | 0.00 | 0.00 | 0.00 | 61 | 1016.1 |
| 20260903151603 | 65 | 312 | 2.0 | 6.0 | 0.00 | 0.00 | 0.00 | 62 | 1016.0 |
| 20260903151503 | 65 | 310 | 2.0 | 6.0 | 0.00 | 0.00 | 0.00 | 61 | 1016.0 |
| 20260903151403 | 65 | 304 | 2.0 | 6.0 | 0.00 | 0.00 | 0.00 | 61 | 1015.9 |
| 20260903151303 | 65 | 303 | 2.0 | 6.0 | 0.00 | 0.00 | 0.00 | 62 | 1015.9 |
| 20260903151103 | 64 | 280 | 2.0 | 7.0 | 0.00 | 0.00 | 0.00 | 62 | 1016.0 |
| 20260903151006 | 64 | 286 | 2.0 | 7.0 | 0.00 | 0.00 | 0.00 | 62 | 1016.0 |
| 20260903150903 | 64 | 298 | 2.0 | 7.0 | 0.00 | 0.00 | 0.00 | 62 | 1016.2 |
| 20260903150803 | 64 | 302 | 4.0 | 7.0 | 0.00 | 0.00 | 0.00 | 62 | 1016.1 |
| 20260903150717 | 64 | 302 | 2.0 | 7.0 | 0.00 | 0.00 | 0.00 | 63 | 1016.1 |
| 20260903150703 | 64 | 299 | 4.0 | 7.0 | 0.00 | 0.00 | 0.00 | 63 | 1016.0 |
| 20260903150603 | 64 | 296 | 3.0 | 7.0 | 0.00 | 0.00 | 0.00 | 64 | 1016.3 |
| 20260903150418 | 63 | 275 | 4.0 | 7.0 | 0.00 | 0.00 | 0.00 | 64 | 1015.9 |
| 20260903150403 | 63 | 272 | 4.0 | 7.0 | 0.00 | 0.00 | 0.00 | 64 | 1015.9 |
| 20260903150303 | 64 | 264 | 4.0 | 7.0 | 0.00 | 0.00 | 0.00 | 64 | 1016.1 |
| 20260903150103 | 64 | 276 | 4.0 | 7.0 | 0.00 | 0.00 | 0.00 | 64 | 1016.2 |
| 20260903150003 | 64 | 274 | 4.0 | 8.0 | 0.00 | 0.00 | 0.00 | 63 | 1016.3 |
| 20260903145903 | 64 | 280 | 2.0 | 8.0 | 0.00 | 0.00 | 0.00 | 64 | 1016.4 |
| 20260903145803 | 64 | 283 | 4.0 | 8.0 | 0.00 | 0.00 | 0.00 | 64 | 1016.5 |
| 20260903145703 | 64 | 288 | 3.0 | 8.0 | 0.00 | 0.00 | 0.00 | 64 | 1016.3 |
| 20260903145603 | 64 | 287 | 3.0 | 8.0 | 0.00 | 0.00 | 0.00 | 63 | 1016.2 |
| 20260903145503 | 64 | 299 | 3.0 | 7.0 | 0.00 | 0.00 | 0.00 | 63 | 1016.1 |
| 20260903145403 | 64 | 305 | 2.0 | 7.0 | 0.00 | 0.00 | 0.00 | 63 | 1016.3 |
| 20260903145306 | 64 | 298 | 2.0 | 7.0 | 0.00 | 0.00 | 0.00 | 63 | 1016.3 |
| 20260903145104 | 64 | 290 | 4.0 | 6.0 | 0.00 | 0.00 | 0.00 | 63 | 1016.2 |
| 20260903145003 | 64 | 287 | 2.0 | 6.0 | 0.00 | 0.00 | 0.00 | 63 | 1016.2 |
| 20260903144917 | 64 | 288 | 2.0 | 6.0 | 0.00 | 0.00 | 0.00 | 63 | 1016.2 |
| 20260903144903 | 64 | 289 | 2.0 | 6.0 | 0.00 | 0.00 | 0.00 | 63 | 1016.2 |
| 20260903144818 | 64 | 290 | 2.0 | 6.0 | 0.00 | 0.00 | 0.00 | 63 | 1015.9 |
| 20260903144803 | 64 | 292 | 2.0 | 6.0 | 0.00 | 0.00 | 0.00 | 63 | 1015.9 |
| 20260903144503 | 64 | 295 | 3.0 | 6.0 | 0.00 | 0.00 | 0.00 | 62 | 1016.0 |
| 20260903144403 | 64 | 292 | 2.0 | 4.0 | 0.00 | 0.00 | 0.00 | 62 | 1015.8 |
| 20260903144303 | 64 | 292 | 2.0 | 6.0 | 0.00 | 0.00 | 0.00 | 62 | 1015.9 |
| 20260903144103 | 63 | 303 | 2.0 | 6.0 | 0.00 | 0.00 | 0.00 | 64 | 1015.9 |
| 20260903144003 | 63 | 308 | 2.0 | 6.0 | 0.00 | 0.00 | 0.00 | 64 | 1016.0 |
| 20260903143903 | 63 | 313 | 4.0 | 6.0 | 0.00 | 0.00 | 0.00 | 64 | 1015.9 |
| 20260903143803 | 63 | 317 | 3.0 | 6.0 | 0.00 | 0.00 | 0.00 | 65 | 1016.0 |
| 20260903143703 | 63 | 317 | 2.0 | 6.0 | 0.00 | 0.00 | 0.00 | 65 | 1016.1 |
| 20260903143603 | 62 | 320 | 2.0 | 6.0 | 0.00 | 0.00 | 0.00 | 65 | 1015.8 |
| 20260903143503 | 63 | 315 | 4.0 | 6.0 | 0.00 | 0.00 | 0.00 | 64 | 1015.9 |
| 20260903143403 | 63 | 311 | 3.0 | 6.0 | 0.00 | 0.00 | 0.00 | 64 | 1015.9 |
| 20260903143303 | 63 | 311 | 4.0 | 6.0 | 0.00 | 0.00 | 0.00 | 64 | 1015.8 |
| 20260903143203 | 63 | 304 | 4.0 | 6.0 | 0.00 | 0.00 | 0.00 | 64 | 1015.8 |
| 20260903143103 | 63 | 300 | 2.0 | 4.0 | 0.00 | 0.00 | 0.00 | 64 | 1015.8 |
| 20260903143016 | 63 | 297 | 2.0 | 4.0 | 0.00 | 0.00 | 0.00 | 64 | 1015.9 |
| 20260903143004 | 63 | 300 | 2.0 | 4.0 | 0.00 | 0.00 | 0.00 | 64 | 1015.9 |
| 20260903142903 | 63 | 293 | 2.0 | 4.0 | 0.00 | 0.00 | 0.00 | 63 | 1016.0 |
| 20260903142718 | 63 | 304 | 2.0 | 4.0 | 0.00 | 0.00 | 0.00 | 63 | 1016.1 |
| 20260903142703 | 63 | 307 | 2.0 | 4.0 | 0.00 | 0.00 | 0.00 | 63 | 1016.1 |
| 20260903142603 | 63 | 306 | 2.0 | 6.0 | 0.00 | 0.00 | 0.00 | 63 | 1016.0 |
| 20260903142403 | 63 | 312 | 2.0 | 6.0 | 0.00 | 0.00 | 0.00 | 64 | 1016.0 |
| 20260903142317 | 63 | 312 | 3.0 | 6.0 | 0.00 | 0.00 | 0.00 | 64 | 1015.9 |
| 20260903142306 | 63 | 311 | 3.0 | 6.0 | 0.00 | 0.00 | 0.00 | 64 | 1016.1 |
| 20260903142203 | 63 | 311 | 2.0 | 6.0 | 0.00 | 0.00 | 0.00 | 64 | 1016.2 |
| 20260903142118 | 63 | 311 | 4.0 | 6.0 | 0.00 | 0.00 | 0.00 | 64 | 1016.2 |
| 20260903142003 | 63 | 317 | 2.0 | 6.0 | 0.00 | 0.00 | 0.00 | 64 | 1016.2 |
| 20260903141803 | 62 | 310 | 2.0 | 6.0 | 0.00 | 0.00 | 0.00 | 65 | 1016.2 |
| 20260903141703 | 63 | 311 | 2.0 | 6.0 | 0.00 | 0.00 | 0.00 | 65 | 1016.1 |
| 20260903141603 | 63 | 307 | 3.0 | 6.0 | 0.00 | 0.00 | 0.00 | 66 | 1016.2 |
| 20260903141503 | 63 | 294 | 3.0 | 6.0 | 0.00 | 0.00 | 0.00 | 65 | 1016.1 |
| 20260903141403 | 64 | 273 | 1.0 | 4.0 | 0.00 | 0.00 | 0.00 | 65 | 1016.1 |
| 20260903141303 | 63 | 266 | 2.0 | 4.0 | 0.00 | 0.00 | 0.00 | 66 | 1016.2 |
| 20260903141203 | 63 | 269 | 1.0 | 4.0 | 0.00 | 0.00 | 0.00 | 66 | 1016.0 |
| 20260903141118 | 63 | 267 | 2.0 | 4.0 | 0.00 | 0.00 | 0.00 | 66 | 1016.0 |
| 20260903141103 | 63 | 266 | 2.0 | 4.0 | 0.00 | 0.00 | 0.00 | 66 | 1015.9 |
| 20260903141003 | 63 | 265 | 2.0 | 4.0 | 0.00 | 0.00 | 0.00 | 66 | 1016.1 |
| 20260903140917 | 62 | 272 | 2.0 | 4.0 | 0.00 | 0.00 | 0.00 | 66 | 1016.2 |
| 20260903140803 | 62 | 273 | 2.0 | 4.0 | 0.00 | 0.00 | 0.00 | 66 | 1016.0 |
| 20260903140718 | 63 | 284 | 2.0 | 4.0 | 0.00 | 0.00 | 0.00 | 66 | 1015.9 |
| 20260903140617 | 62 | 303 | 2.0 | 4.0 | 0.00 | 0.00 | 0.00 | 67 | 1016.0 |
| 20260903140518 | 62 | 320 | 2.0 | 4.0 | 0.00 | 0.00 | 0.00 | 67 | 1015.9 |
| 20260903140203 | 62 | 314 | 2.0 | 4.0 | 0.00 | 0.00 | 0.00 | 68 | 1016.0 |
| 20260903140003 | 62 | 313 | 2.0 | 4.0 | 0.00 | 0.00 | 0.00 | 67 | 1015.9 |
| 20260903135903 | 62 | 318 | 3.0 | 4.0 | 0.00 | 0.00 | 0.00 | 66 | 1016.0 |
| 20260903135703 | 63 | 320 | 1.0 | 4.0 | 0.00 | 0.00 | 0.00 | 66 | 1016.0 |
| 20260903135603 | 63 | 307 | 2.0 | 4.0 | 0.00 | 0.00 | 0.00 | 66 | 1015.9 |
| 20260903135503 | 63 | 279 | 2.0 | 4.0 | 0.00 | 0.00 | 0.00 | 65 | 1016.0 |
| 20260903135403 | 63 | 231 | 1.0 | 2.0 | 0.00 | 0.00 | 0.00 | 65 | 1016.2 |
| 20260903135306 | 63 | 229 | 0.0 | 2.0 | 0.00 | 0.00 | 0.00 | 65 | 1016.3 |
| 20260903135217 | 62 | 235 | 1.0 | 4.0 | 0.00 | 0.00 | 0.00 | 65 | 1016.3 |
| 20260903135203 | 62 | 237 | 1.0 | 4.0 | 0.00 | 0.00 | 0.00 | 65 | 1016.3 |
| 20260903135103 | 62 | 237 | 1.0 | 4.0 | 0.00 | 0.00 | 0.00 | 66 | 1016.3 |
| 20260903134905 | 62 | 244 | 0.0 | 4.0 | 0.00 | 0.00 | 0.00 | 67 | 1016.2 |
| 20260903134803 | 61 | 244 | 2.0 | 4.0 | 0.00 | 0.00 | 0.00 | 66 | 1016.2 |
| 20260903134703 | 61 | 246 | 2.0 | 4.0 | 0.00 | 0.00 | 0.00 | 67 | 1016.2 |
| 20260903134603 | 61 | 245 | 2.0 | 4.0 | 0.00 | 0.00 | 0.00 | 67 | 1016.1 |
| 20260903134503 | 61 | 247 | 2.0 | 4.0 | 0.00 | 0.00 | 0.00 | 68 | 1015.9 |
| 20260903134418 | 61 | 249 | 3.0 | 4.0 | 0.00 | 0.00 | 0.00 | 67 | 1016.1 |
| 20260903134403 | 61 | 250 | 3.0 | 4.0 | 0.00 | 0.00 | 0.00 | 67 | 1016.1 |
| 20260903134103 | 61 | 244 | 2.0 | 4.0 | 0.00 | 0.00 | 0.00 | 67 | 1016.2 |
| 20260903134003 | 61 | 250 | 1.0 | 4.0 | 0.00 | 0.00 | 0.00 | 67 | 1015.9 |
| 20260903133903 | 61 | 247 | 2.0 | 4.0 | 0.00 | 0.00 | 0.00 | 67 | 1016.0 |
| 20260903133804 | 61 | 245 | 2.0 | 4.0 | 0.00 | 0.00 | 0.00 | 67 | 1016.1 |
| 20260903133703 | 61 | 245 | 1.0 | 4.0 | 0.00 | 0.00 | 0.00 | 68 | 1015.9 |
| 20260903133603 | 61 | 248 | 2.0 | 4.0 | 0.00 | 0.00 | 0.00 | 67 | 1016.1 |
| 20260903133503 | 61 | 244 | 3.0 | 4.0 | 0.00 | 0.00 | 0.00 | 68 | 1016.2 |
| 20260903133403 | 62 | 240 | 2.0 | 4.0 | 0.00 | 0.00 | 0.00 | 68 | 1016.2 |
| 20260903133303 | 62 | 249 | 1.0 | 4.0 | 0.00 | 0.00 | 0.00 | 68 | 1016.1 |
| 20260903133203 | 61 | 258 | 2.0 | 4.0 | 0.00 | 0.00 | 0.00 | 67 | 1016.0 |
| 20260903133103 | 61 | 265 | 1.0 | 4.0 | 0.00 | 0.00 | 0.00 | 68 | 1016.2 |
| 20260903133018 | 61 | 261 | 2.0 | 4.0 | 0.00 | 0.00 | 0.00 | 68 | 1016.3 |
| 20260903133003 | 61 | 263 | 2.0 | 4.0 | 0.00 | 0.00 | 0.00 | 68 | 1016.3 |
| 20260903132903 | 61 | 264 | 3.0 | 4.0 | 0.00 | 0.00 | 0.00 | 67 | 1016.0 |
| 20260903132703 | 61 | 257 | 3.0 | 4.0 | 0.00 | 0.00 | 0.00 | 68 | 1016.2 |
| 20260903132603 | 61 | 249 | 2.0 | 4.0 | 0.00 | 0.00 | 0.00 | 69 | 1016.2 |
| 20260903132503 | 61 | 247 | 3.0 | 4.0 | 0.00 | 0.00 | 0.00 | 69 | 1016.2 |
| 20260903132403 | 61 | 247 | 2.0 | 4.0 | 0.00 | 0.00 | 0.00 | 69 | 1016.3 |
| 20260903132306 | 61 | 244 | 1.0 | 4.0 | 0.00 | 0.00 | 0.00 | 69 | 1016.2 |
| 20260903132203 | 60 | 247 | 2.0 | 4.0 | 0.00 | 0.00 | 0.00 | 70 | 1016.1 |
| 20260903132103 | 60 | 250 | 3.0 | 4.0 | 0.00 | 0.00 | 0.00 | 69 | 1016.1 |
| 20260903132018 | 60 | 253 | 2.0 | 4.0 | 0.00 | 0.00 | 0.00 | 69 | 1016.3 |
| 20260903132003 | 60 | 254 | 2.0 | 4.0 | 0.00 | 0.00 | 0.00 | 69 | 1016.3 |
| 20260903131903 | 61 | 254 | 2.0 | 4.0 | 0.00 | 0.00 | 0.00 | 69 | 1016.1 |
| 20260903131703 | 61 | 252 | 2.0 | 4.0 | 0.00 | 0.00 | 0.00 | 69 | 1016.2 |
| 20260903131617 | 61 | 249 | 2.0 | 4.0 | 0.00 | 0.00 | 0.00 | 69 | 1016.1 |
| 20260903131603 | 61 | 248 | 2.0 | 4.0 | 0.00 | 0.00 | 0.00 | 69 | 1016.1 |
| 20260903131517 | 61 | 243 | 1.0 | 4.0 | 0.00 | 0.00 | 0.00 | 70 | 1016.2 |
| 20260903131503 | 60 | 241 | 2.0 | 4.0 | 0.00 | 0.00 | 0.00 | 70 | 1016.2 |
| 20260903131203 | 60 | 233 | 2.0 | 4.0 | 0.00 | 0.00 | 0.00 | 70 | 1016.1 |
| 20260903131117 | 60 | 240 | 2.0 | 4.0 | 0.00 | 0.00 | 0.00 | 70 | 1016.1 |
| 20260903131104 | 60 | 242 | 2.0 | 4.0 | 0.00 | 0.00 | 0.00 | 70 | 1016.1 |
| 20260903131018 | 60 | 250 | 2.0 | 4.0 | 0.00 | 0.00 | 0.00 | 70 | 1016.3 |
| 20260903131003 | 60 | 253 | 2.0 | 4.0 | 0.00 | 0.00 | 0.00 | 70 | 1016.3 |
| 20260903130817 | 60 | 259 | 2.0 | 4.0 | 0.00 | 0.00 | 0.00 | 70 | 1016.4 |
| 20260903130703 | 60 | 256 | 2.0 | 4.0 | 0.00 | 0.00 | 0.00 | 70 | 1016.2 |
| 20260903130503 | 60 | 244 | 2.0 | 4.0 | 0.00 | 0.00 | 0.00 | 70 | 1016.2 |
| 20260903130403 | 60 | 243 | 3.0 | 4.0 | 0.00 | 0.00 | 0.00 | 70 | 1016.2 |
| 20260903130320 | 60 | 246 | 2.0 | 4.0 | 0.00 | 0.00 | 0.00 | 70 | 1016.2 |
| 20260903130303 | 60 | 247 | 0.0 | 4.0 | 0.00 | 0.00 | 0.00 | 71 | 1016.1 |
| 20260903130217 | 60 | 246 | 0.0 | 4.0 | 0.00 | 0.00 | 0.00 | 71 | 1016.3 |
| 20260903130203 | 60 | 244 | 0.0 | 4.0 | 0.00 | 0.00 | 0.00 | 71 | 1016.3 |
| 20260903125903 | 60 | 241 | 3.0 | 4.0 | 0.00 | 0.00 | 0.00 | 70 | 1016.1 |
| 20260903125803 | 60 | 230 | 2.0 | 4.0 | 0.00 | 0.00 | 0.00 | 70 | 1016.4 |
| 20260903125703 | 60 | 226 | 2.0 | 4.0 | 0.00 | 0.00 | 0.00 | 69 | 1016.2 |
| 20260903125603 | 60 | 224 | 2.0 | 4.0 | 0.00 | 0.00 | 0.00 | 70 | 1016.0 |
| 20260903125503 | 60 | 215 | 1.0 | 4.0 | 0.00 | 0.00 | 0.00 | 70 | 1016.1 |
| 20260903125403 | 60 | 213 | 2.0 | 4.0 | 0.00 | 0.00 | 0.00 | 70 | 1016.3 |
| 20260903125203 | 60 | 220 | 3.0 | 4.0 | 0.00 | 0.00 | 0.00 | 70 | 1016.2 |
| 20260903125117 | 60 | 216 | 2.0 | 4.0 | 0.00 | 0.00 | 0.00 | 70 | 1016.3 |
| 20260903125103 | 60 | 214 | 2.0 | 4.0 | 0.00 | 0.00 | 0.00 | 70 | 1016.5 |
| 20260903125018 | 60 | 209 | 1.0 | 4.0 | 0.00 | 0.00 | 0.00 | 70 | 1016.6 |
| 20260903125003 | 60 | 207 | 1.0 | 4.0 | 0.00 | 0.00 | 0.00 | 70 | 1016.6 |
| 20260903124817 | 60 | 203 | 2.0 | 6.0 | 0.00 | 0.00 | 0.00 | 70 | 1016.6 |
| 20260903124703 | 60 | 205 | 2.0 | 6.0 | 0.00 | 0.00 | 0.00 | 70 | 1016.7 |
| 20260903124503 | 60 | 226 | 2.0 | 6.0 | 0.00 | 0.00 | 0.00 | 70 | 1016.6 |
| 20260903124403 | 60 | 228 | 2.0 | 6.0 | 0.00 | 0.00 | 0.00 | 69 | 1016.4 |
| 20260903124303 | 60 | 241 | 2.0 | 4.0 | 0.00 | 0.00 | 0.00 | 70 | 1016.3 |
| 20260903124203 | 60 | 237 | 2.0 | 4.0 | 0.00 | 0.00 | 0.00 | 70 | 1016.6 |
| 20260903124103 | 59 | 235 | 3.0 | 4.0 | 0.00 | 0.00 | 0.00 | 70 | 1016.3 |
| 20260903124003 | 60 | 233 | 3.0 | 4.0 | 0.00 | 0.00 | 0.00 | 70 | 1016.2 |
| 20260903123903 | 59 | 233 | 2.0 | 4.0 | 0.00 | 0.00 | 0.00 | 71 | 1016.3 |
| 20260903123804 | 59 | 228 | 2.0 | 4.0 | 0.00 | 0.00 | 0.00 | 71 | 1016.3 |
| 20260903123703 | 60 | 231 | 2.0 | 4.0 | 0.00 | 0.00 | 0.00 | 71 | 1016.2 |
| 20260903123603 | 60 | 226 | 2.0 | 4.0 | 0.00 | 0.00 | 0.00 | 71 | 1015.9 |
| 20260903123508 | 60 | 221 | 2.0 | 4.0 | 0.00 | 0.00 | 0.00 | 70 | 1016.1 |
| 20260903123403 | 60 | 218 | 2.0 | 4.0 | 0.00 | 0.00 | 0.00 | 70 | 1015.9 |
| 20260903123303 | 60 | 213 | 2.0 | 4.0 | 0.00 | 0.00 | 0.00 | 70 | 1016.0 |
| 20260903123217 | 60 | 208 | 2.0 | 6.0 | 0.00 | 0.00 | 0.00 | 70 | 1016.0 |
| 20260903123203 | 60 | 206 | 2.0 | 6.0 | 0.00 | 0.00 | 0.00 | 70 | 1016.0 |
| 20260903123103 | 60 | 206 | 2.0 | 6.0 | 0.00 | 0.00 | 0.00 | 70 | 1016.1 |
| 20260903122903 | 60 | 215 | 2.0 | 6.0 | 0.00 | 0.00 | 0.00 | 70 | 1016.0 |
| 20260903122803 | 59 | 218 | 2.0 | 6.0 | 0.00 | 0.00 | 0.00 | 70 | 1016.0 |
| 20260903122717 | 59 | 225 | 3.0 | 6.0 | 0.00 | 0.00 | 0.00 | 71 | 1016.0 |
| 20260903122703 | 59 | 228 | 3.0 | 6.0 | 0.00 | 0.00 | 0.00 | 71 | 1016.0 |
| 20260903122603 | 59 | 236 | 2.0 | 6.0 | 0.00 | 0.00 | 0.00 | 71 | 1015.9 |
| 20260903122318 | 59 | 233 | 4.0 | 6.0 | 0.00 | 0.00 | 0.00 | 70 | 1016.0 |
| 20260903122305 | 60 | 233 | 2.0 | 4.0 | 0.00 | 0.00 | 0.00 | 71 | 1016.0 |
| 20260903122203 | 60 | 223 | 2.0 | 4.0 | 0.00 | 0.00 | 0.00 | 71 | 1016.2 |
| 20260903122003 | 59 | 200 | 2.0 | 4.0 | 0.00 | 0.00 | 0.00 | 71 | 1016.2 |
| 20260903121903 | 59 | 200 | 2.0 | 4.0 | 0.00 | 0.00 | 0.00 | 71 | 1016.0 |
| 20260903121803 | 59 | 194 | 2.0 | 4.0 | 0.00 | 0.00 | 0.00 | 70 | 1015.9 |
| 20260903121717 | 59 | 199 | 2.0 | 4.0 | 0.00 | 0.00 | 0.00 | 70 | 1015.9 |
| 20260903121703 | 59 | 203 | 2.0 | 4.0 | 0.00 | 0.00 | 0.00 | 70 | 1015.9 |
| 20260903121603 | 59 | 208 | 3.0 | 4.0 | 0.00 | 0.00 | 0.00 | 70 | 1015.9 |
| 20260903121403 | 59 | 199 | 1.0 | 6.0 | 0.00 | 0.00 | 0.00 | 71 | 1015.9 |
| 20260903121303 | 59 | 212 | 1.0 | 6.0 | 0.00 | 0.00 | 0.00 | 71 | 1016.0 |
| 20260903121203 | 59 | 214 | 2.0 | 6.0 | 0.00 | 0.00 | 0.00 | 71 | 1015.9 |
| 20260903121103 | 59 | 226 | 2.0 | 6.0 | 0.00 | 0.00 | 0.00 | 71 | 1015.7 |
| 20260903120903 | 59 | 241 | 4.0 | 6.0 | 0.00 | 0.00 | 0.00 | 71 | 1016.0 |
| 20260903120803 | 59 | 235 | 2.0 | 6.0 | 0.00 | 0.00 | 0.00 | 71 | 1015.8 |
| 20260903120703 | 59 | 228 | 3.0 | 6.0 | 0.00 | 0.00 | 0.00 | 71 | 1015.7 |
| 20260903120618 | 59 | 227 | 3.0 | 4.0 | 0.00 | 0.00 | 0.00 | 71 | 1015.8 |
| 20260903120603 | 59 | 228 | 3.0 | 4.0 | 0.00 | 0.00 | 0.00 | 71 | 1015.8 |
| 20260903120503 | 59 | 227 | 2.0 | 4.0 | 0.00 | 0.00 | 0.00 | 71 | 1015.9 |
| 20260903120417 | 59 | 225 | 3.0 | 4.0 | 0.00 | 0.00 | 0.00 | 70 | 1015.8 |
| 20260903120303 | 59 | 231 | 2.0 | 4.0 | 0.00 | 0.00 | 0.00 | 70 | 1015.8 |
| 20260903120003 | 59 | 235 | 1.0 | 4.0 | 0.00 | 0.00 | 0.00 | 70 | 1015.7 |
| 20260903115903 | 59 | 234 | 2.0 | 4.0 | 0.00 | 0.00 | 0.00 | 70 | 1015.7 |
| 20260903115803 | 59 | 230 | 1.0 | 4.0 | 0.00 | 0.00 | 0.00 | 70 | 1015.9 |
| 20260903115703 | 59 | 218 | 2.0 | 4.0 | 0.00 | 0.00 | 0.00 | 70 | 1015.9 |
| 20260903115603 | 59 | 204 | 2.0 | 4.0 | 0.00 | 0.00 | 0.00 | 70 | 1015.8 |
| 20260903115503 | 59 | 179 | 1.0 | 2.0 | 0.00 | 0.00 | 0.00 | 70 | 1015.7 |
| 20260903115403 | 59 | 186 | 1.0 | 2.0 | 0.00 | 0.00 | 0.00 | 70 | 1015.7 |
| 20260903115305 | 59 | 190 | 0.0 | 2.0 | 0.00 | 0.00 | 0.00 | 70 | 1015.8 |
| 20260903115203 | 59 | 193 | 1.0 | 2.0 | 0.00 | 0.00 | 0.00 | 70 | 1015.6 |
| 20260903115103 | 59 | 204 | 2.0 | 2.0 | 0.00 | 0.00 | 0.00 | 70 | 1015.5 |
| 20260903114903 | 59 | 194 | 1.0 | 4.0 | 0.00 | 0.00 | 0.00 | 70 | 1015.6 |
| 20260903114803 | 59 | 203 | 0.0 | 4.0 | 0.00 | 0.00 | 0.00 | 70 | 1015.9 |
| 20260903114703 | 59 | 204 | 1.0 | 4.0 | 0.00 | 0.00 | 0.00 | 70 | 1015.9 |
| 20260903114603 | 59 | 210 | 1.0 | 4.0 | 0.00 | 0.00 | 0.00 | 70 | 1015.6 |
| 20260903114503 | 59 | 219 | 1.0 | 4.0 | 0.00 | 0.00 | 0.00 | 70 | 1015.7 |
| 20260903114403 | 59 | 223 | 1.0 | 4.0 | 0.00 | 0.00 | 0.00 | 70 | 1015.6 |
| 20260903114318 | 59 | 227 | 2.0 | 4.0 | 0.00 | 0.00 | 0.00 | 70 | 1015.8 |
| 20260903114303 | 59 | 224 | 2.0 | 4.0 | 0.00 | 0.00 | 0.00 | 70 | 1015.9 |
| 20260903114218 | 59 | 226 | 1.0 | 4.0 | 0.00 | 0.00 | 0.00 | 70 | 1015.7 |
| 20260903114203 | 59 | 225 | 1.0 | 4.0 | 0.00 | 0.00 | 0.00 | 70 | 1015.7 |
| 20260903113903 | 59 | 209 | 3.0 | 4.0 | 0.00 | 0.00 | 0.00 | 70 | 1015.7 |
| 20260903113804 | 59 | 195 | 1.0 | 4.0 | 0.00 | 0.00 | 0.00 | 70 | 1015.8 |
| 20260903113717 | 59 | 199 | 1.0 | 4.0 | 0.00 | 0.00 | 0.00 | 70 | 1015.7 |
| 20260903113703 | 59 | 200 | 1.0 | 4.0 | 0.00 | 0.00 | 0.00 | 70 | 1015.7 |
| 20260903113603 | 59 | 211 | 1.0 | 4.0 | 0.00 | 0.00 | 0.00 | 70 | 1015.8 |
| 20260903113417 | 59 | 186 | 2.0 | 4.0 | 0.00 | 0.00 | 0.00 | 70 | 1015.7 |
| 20260903113403 | 59 | 188 | 2.0 | 4.0 | 0.00 | 0.00 | 0.00 | 70 | 1015.7 |
| 20260903113318 | 59 | 193 | 2.0 | 4.0 | 0.00 | 0.00 | 0.00 | 70 | 1015.7 |
| 20260903113303 | 59 | 191 | 2.0 | 4.0 | 0.00 | 0.00 | 0.00 | 70 | 1015.7 |
| 20260903113218 | 59 | 189 | 2.0 | 4.0 | 0.00 | 0.00 | 0.00 | 70 | 1015.7 |
| 20260903113117 | 59 | 186 | 2.0 | 4.0 | 0.00 | 0.00 | 0.00 | 70 | 1015.6 |
| 20260903113018 | 59 | 201 | 2.0 | 4.0 | 0.00 | 0.00 | 0.00 | 70 | 1015.9 |
| 20260903112703 | 59 | 223 | 2.0 | 4.0 | 0.00 | 0.00 | 0.00 | 70 | 1015.6 |
| 20260903112604 | 59 | 208 | 1.0 | 4.0 | 0.00 | 0.00 | 0.00 | 70 | 1015.5 |
| 20260903112503 | 59 | 200 | 1.0 | 4.0 | 0.00 | 0.00 | 0.00 | 70 | 1015.7 |
| 20260903112403 | 59 | 208 | 0.0 | 4.0 | 0.00 | 0.00 | 0.00 | 70 | 1015.2 |
| 20260903112306 | 59 | 216 | 2.0 | 4.0 | 0.00 | 0.00 | 0.00 | 70 | 1015.4 |
| 20260903112205 | 59 | 191 | 2.0 | 4.0 | 0.00 | 0.00 | 0.00 | 70 | 1015.5 |
| 20260903112103 | 59 | 198 | 2.0 | 4.0 | 0.00 | 0.00 | 0.00 | 70 | 1015.6 |
| 20260903112003 | 59 | 207 | 2.0 | 4.0 | 0.00 | 0.00 | 0.00 | 70 | 1015.7 |
| 20260903111918 | 59 | 210 | 1.0 | 4.0 | 0.00 | 0.00 | 0.00 | 70 | 1015.5 |
| 20260903111903 | 59 | 204 | 1.0 | 4.0 | 0.00 | 0.00 | 0.00 | 70 | 1015.5 |
| 20260903111803 | 59 | 191 | 2.0 | 4.0 | 0.00 | 0.00 | 0.00 | 70 | 1015.6 |
| 20260903111603 | 59 | 212 | 2.0 | 4.0 | 0.00 | 0.00 | 0.00 | 70 | 1015.4 |
| 20260903111503 | 59 | 201 | 2.0 | 4.0 | 0.00 | 0.00 | 0.00 | 70 | 1015.5 |
| 20260903111403 | 59 | 185 | 3.0 | 4.0 | 0.00 | 0.00 | 0.00 | 70 | 1015.4 |
| 20260903111303 | 59 | 187 | 3.0 | 4.0 | 0.00 | 0.00 | 0.00 | 70 | 1015.5 |
| 20260903111218 | 59 | 176 | 2.0 | 4.0 | 0.00 | 0.00 | 0.00 | 70 | 1015.2 |
| 20260903111207 | 59 | 170 | 2.0 | 4.0 | 0.00 | 0.00 | 0.00 | 70 | 1015.2 |
| 20260903111103 | 59 | 189 | 2.0 | 4.0 | 0.00 | 0.00 | 0.00 | 70 | 1015.0 |
| 20260903110918 | 59 | 216 | 2.0 | 4.0 | 0.00 | 0.00 | 0.00 | 70 | 1014.9 |
| 20260903110903 | 59 | 214 | 2.0 | 4.0 | 0.00 | 0.00 | 0.00 | 70 | 1014.9 |
| 20260903110803 | 59 | 223 | 1.0 | 4.0 | 0.00 | 0.00 | 0.00 | 70 | 1014.9 |
| 20260903110603 | 59 | 206 | 2.0 | 6.0 | 0.00 | 0.00 | 0.00 | 70 | 1015.0 |
| 20260903110503 | 59 | 198 | 2.0 | 7.0 | 0.00 | 0.00 | 0.00 | 70 | 1015.0 |
| 20260903110403 | 59 | 200 | 2.0 | 7.0 | 0.00 | 0.00 | 0.00 | 70 | 1015.1 |
| 20260903110303 | 59 | 203 | 2.0 | 7.0 | 0.00 | 0.00 | 0.00 | 70 | 1015.1 |
| 20260903110203 | 59 | 199 | 2.0 | 7.0 | 0.00 | 0.00 | 0.00 | 70 | 1015.1 |
| 20260903110103 | 59 | 193 | 3.0 | 7.0 | 0.00 | 0.00 | 0.00 | 70 | 1015.2 |
| 20260903110003 | 59 | 207 | 4.0 | 7.0 | 0.00 | 0.00 | 0.00 | 70 | 1015.1 |
| 20260903105905 | 59 | 228 | 2.0 | 8.0 | 0.00 | 0.00 | 0.00 | 70 | 1015.3 |
| 20260903105703 | 59 | 229 | 3.0 | 8.0 | 0.00 | 0.00 | 0.00 | 70 | 1015.2 |
| 20260903105622 | 59 | 232 | 3.0 | 8.0 | 0.00 | 0.00 | 0.00 | 70 | 1015.5 |
| 20260903105603 | 59 | 233 | 3.0 | 8.0 | 0.00 | 0.00 | 0.00 | 70 | 1015.5 |
| 20260903105503 | 59 | 217 | 4.0 | 8.0 | 0.00 | 0.00 | 0.00 | 69 | 1015.2 |
| 20260903105306 | 59 | 193 | 4.0 | 8.0 | 0.00 | 0.00 | 0.00 | 69 | 1015.3 |
| 20260903105203 | 59 | 197 | 4.0 | 7.0 | 0.00 | 0.00 | 0.00 | 69 | 1015.3 |
| 20260903105103 | 59 | 193 | 4.0 | 7.0 | 0.00 | 0.00 | 0.00 | 69 | 1015.1 |
| 20260903105003 | 59 | 204 | 4.0 | 7.0 | 0.00 | 0.00 | 0.00 | 69 | 1015.1 |
| 20260903104903 | 59 | 215 | 2.0 | 7.0 | 0.00 | 0.00 | 0.00 | 69 | 1015.4 |
| 20260903104803 | 59 | 203 | 2.0 | 7.0 | 0.00 | 0.00 | 0.00 | 69 | 1015.4 |
| 20260903104603 | 59 | 234 | 3.0 | 8.0 | 0.00 | 0.00 | 0.00 | 69 | 1015.2 |
| 20260903104503 | 59 | 238 | 2.0 | 8.0 | 0.00 | 0.00 | 0.00 | 69 | 1015.2 |
| 20260903104403 | 59 | 239 | 3.0 | 8.0 | 0.00 | 0.00 | 0.00 | 69 | 1015.2 |
| 20260903104303 | 59 | 248 | 3.0 | 8.0 | 0.00 | 0.00 | 0.00 | 69 | 1015.0 |
| 20260903104218 | 59 | 232 | 2.0 | 8.0 | 0.00 | 0.00 | 0.00 | 69 | 1015.0 |
| 20260903104203 | 59 | 226 | 2.0 | 8.0 | 0.00 | 0.00 | 0.00 | 69 | 1015.0 |
| 20260903104103 | 59 | 225 | 3.0 | 8.0 | 0.00 | 0.00 | 0.00 | 69 | 1014.8 |
| 20260903103903 | 59 | 231 | 1.0 | 11.0 | 0.00 | 0.00 | 0.00 | 69 | 1015.2 |
| 20260903103803 | 59 | 219 | 3.0 | 11.0 | 0.00 | 0.00 | 0.00 | 69 | 1014.9 |
| 20260903103717 | 59 | 221 | 2.0 | 11.0 | 0.00 | 0.00 | 0.00 | 69 | 1015.1 |
| 20260903103703 | 59 | 225 | 2.0 | 11.0 | 0.00 | 0.00 | 0.00 | 69 | 1015.1 |
| 20260903103603 | 59 | 216 | 3.0 | 11.0 | 0.00 | 0.00 | 0.00 | 69 | 1015.0 |
| 20260903103403 | 59 | 194 | 4.0 | 8.0 | 0.00 | 0.00 | 0.00 | 69 | 1015.0 |
| 20260903103303 | 59 | 191 | 2.0 | 7.0 | 0.00 | 0.00 | 0.00 | 69 | 1014.9 |
| 20260903103218 | 59 | 189 | 2.0 | 7.0 | 0.00 | 0.00 | 0.00 | 69 | 1015.0 |
| 20260903103203 | 59 | 188 | 2.0 | 7.0 | 0.00 | 0.00 | 0.00 | 69 | 1015.0 |
| 20260903103103 | 59 | 195 | 3.0 | 7.0 | 0.00 | 0.00 | 0.00 | 69 | 1014.7 |
| 20260903103017 | 59 | 206 | 2.0 | 6.0 | 0.00 | 0.00 | 0.00 | 70 | 1014.6 |
| 20260903102918 | 59 | 207 | 2.0 | 6.0 | 0.00 | 0.00 | 0.00 | 70 | 1014.8 |
| 20260903102903 | 59 | 210 | 2.0 | 6.0 | 0.00 | 0.00 | 0.00 | 70 | 1014.8 |
| 20260903102818 | 59 | 211 | 3.0 | 8.0 | 0.00 | 0.00 | 0.00 | 70 | 1014.8 |
| 20260903102503 | 59 | 192 | 2.0 | 8.0 | 0.00 | 0.00 | 0.00 | 70 | 1014.9 |
| 20260903102403 | 59 | 182 | 2.0 | 8.0 | 0.00 | 0.00 | 0.00 | 70 | 1015.0 |
| 20260903102305 | 59 | 192 | 3.0 | 6.0 | 0.00 | 0.00 | 0.00 | 70 | 1014.8 |
| 20260903102203 | 59 | 200 | 3.0 | 6.0 | 0.00 | 0.00 | 0.00 | 69 | 1014.7 |
| 20260903102103 | 59 | 258 | 2.0 | 6.0 | 0.00 | 0.00 | 0.00 | 69 | 1014.7 |
| 20260903102003 | 59 | 233 | 4.0 | 6.0 | 0.00 | 0.00 | 0.00 | 69 | 1014.8 |
| 20260903101903 | 59 | 245 | 1.0 | 7.0 | 0.00 | 0.00 | 0.00 | 69 | 1015.0 |
| 20260903101803 | 59 | 247 | 2.0 | 7.0 | 0.00 | 0.00 | 0.00 | 69 | 1014.8 |
| 20260903101717 | 59 | 235 | 0.0 | 8.0 | 0.00 | 0.00 | 0.00 | 69 | 1015.0 |
| 20260903101703 | 59 | 225 | 0.0 | 8.0 | 0.00 | 0.00 | 0.00 | 69 | 1015.0 |
| 20260903101603 | 59 | 225 | 2.0 | 8.0 | 0.00 | 0.00 | 0.00 | 69 | 1015.1 |
| 20260903101403 | 59 | 220 | 3.0 | 8.0 | 0.00 | 0.00 | 0.00 | 69 | 1014.9 |
| 20260903101304 | 59 | 221 | 2.0 | 8.0 | 0.00 | 0.00 | 0.00 | 69 | 1015.0 |
| 20260903101203 | 59 | 232 | 4.0 | 8.0 | 0.00 | 0.00 | 0.00 | 69 | 1014.8 |
| 20260903101003 | 59 | 228 | 4.0 | 8.0 | 0.00 | 0.00 | 0.00 | 69 | 1015.0 |
| 20260903100903 | 59 | 212 | 3.0 | 8.0 | 0.00 | 0.00 | 0.00 | 69 | 1015.0 |
| 20260903100803 | 59 | 201 | 5.0 | 8.0 | 0.00 | 0.00 | 0.00 | 69 | 1015.1 |
| 20260903100717 | 59 | 196 | 4.0 | 8.0 | 0.00 | 0.00 | 0.00 | 69 | 1014.8 |
| 20260903100703 | 59 | 197 | 4.0 | 9.0 | 0.00 | 0.00 | 0.00 | 69 | 1014.9 |
| 20260903100603 | 59 | 202 | 3.0 | 9.0 | 0.00 | 0.00 | 0.00 | 69 | 1014.9 |
| 20260903100403 | 59 | 217 | 4.0 | 9.0 | 0.00 | 0.00 | 0.00 | 68 | 1015.0 |
| 20260903100303 | 59 | 216 | 3.0 | 9.0 | 0.00 | 0.00 | 0.00 | 69 | 1014.8 |
| 20260903100203 | 59 | 203 | 4.0 | 9.0 | 0.00 | 0.00 | 0.00 | 69 | 1014.9 |
| 20260903100103 | 59 | 186 | 4.0 | 9.0 | 0.00 | 0.00 | 0.00 | 69 | 1014.7 |
| 20260903100003 | 59 | 191 | 2.0 | 9.0 | 0.00 | 0.00 | 0.00 | 69 | 1014.8 |
| 20260903095903 | 59 | 188 | 5.0 | 9.0 | 0.00 | 0.00 | 0.00 | 69 | 1014.8 |
| 20260903095818 | 59 | 201 | 3.0 | 9.0 | 0.00 | 0.00 | 0.00 | 69 | 1014.6 |
| 20260903095803 | 59 | 206 | 3.0 | 9.0 | 0.00 | 0.00 | 0.00 | 69 | 1014.6 |
| 20260903095703 | 59 | 217 | 5.0 | 9.0 | 0.00 | 0.00 | 0.00 | 69 | 1014.5 |
| 20260903095617 | 59 | 243 | 4.0 | 11.0 | 0.00 | 0.00 | 0.00 | 69 | 1014.7 |
| 20260903095503 | 59 | 258 | 4.0 | 11.0 | 0.00 | 0.00 | 0.00 | 68 | 1014.5 |
| 20260903095306 | 59 | 216 | 4.0 | 11.0 | 0.00 | 0.00 | 0.00 | 68 | 1014.2 |
| 20260903095218 | 59 | 219 | 2.0 | 11.0 | 0.00 | 0.00 | 0.00 | 68 | 1014.3 |
| 20260903095204 | 59 | 222 | 2.0 | 11.0 | 0.00 | 0.00 | 0.00 | 68 | 1014.3 |
| 20260903095103 | 59 | 214 | 4.0 | 11.0 | 0.00 | 0.00 | 0.00 | 68 | 1014.4 |
| 20260903094903 | 59 | 221 | 4.0 | 13.0 | 0.00 | 0.00 | 0.00 | 68 | 1014.3 |
| 20260903094803 | 59 | 220 | 4.0 | 13.0 | 0.00 | 0.00 | 0.00 | 68 | 1014.1 |
| 20260903094717 | 59 | 205 | 5.0 | 13.0 | 0.00 | 0.00 | 0.00 | 68 | 1014.1 |
| 20260903094703 | 59 | 205 | 3.0 | 13.0 | 0.00 | 0.00 | 0.00 | 68 | 1014.4 |
| 20260903094603 | 59 | 197 | 4.0 | 13.0 | 0.00 | 0.00 | 0.00 | 68 | 1014.0 |
| 20260903094403 | 59 | 202 | 5.0 | 13.0 | 0.00 | 0.00 | 0.00 | 68 | 1014.1 |
| 20260903094303 | 59 | 215 | 4.0 | 13.0 | 0.00 | 0.00 | 0.00 | 68 | 1013.9 |
| 20260903094203 | 59 | 213 | 5.0 | 13.0 | 0.00 | 0.00 | 0.00 | 68 | 1014.1 |
| 20260903094118 | 59 | 201 | 6.0 | 13.0 | 0.00 | 0.00 | 0.00 | 68 | 1013.9 |
| 20260903094103 | 59 | 199 | 6.0 | 13.0 | 0.00 | 0.00 | 0.00 | 68 | 1013.9 |
| 20260903094017 | 59 | 191 | 5.0 | 13.0 | 0.00 | 0.00 | 0.00 | 68 | 1014.0 |
| 20260903094003 | 59 | 185 | 5.0 | 13.0 | 0.00 | 0.00 | 0.00 | 68 | 1014.0 |
| 20260903093703 | 60 | 130 | 4.0 | 13.0 | 0.00 | 0.00 | 0.00 | 68 | 1013.7 |
| 20260903093603 | 60 | 129 | 4.0 | 13.0 | 0.00 | 0.00 | 0.00 | 68 | 1013.8 |
| 20260903093503 | 60 | 152 | 3.0 | 11.0 | 0.00 | 0.00 | 0.00 | 68 | 1013.6 |
| 20260903093403 | 60 | 199 | 4.0 | 11.0 | 0.00 | 0.00 | 0.00 | 68 | 1013.7 |
| 20260903093303 | 60 | 221 | 2.0 | 11.0 | 0.00 | 0.00 | 0.00 | 68 | 1013.5 |
| 20260903093203 | 60 | 209 | 6.0 | 13.0 | 0.00 | 0.00 | 0.00 | 68 | 1013.7 |
| 20260903093103 | 60 | 212 | 4.0 | 13.0 | 0.00 | 0.00 | 0.00 | 68 | 1013.6 |
| 20260903093003 | 60 | 194 | 4.0 | 13.0 | 0.00 | 0.00 | 0.00 | 68 | 1013.6 |
| 20260903092903 | 60 | 171 | 4.0 | 13.0 | 0.00 | 0.00 | 0.00 | 68 | 1013.6 |
| 20260903092803 | 60 | 171 | 2.0 | 13.0 | 0.00 | 0.00 | 0.00 | 67 | 1013.7 |
| 20260903092703 | 60 | 175 | 2.0 | 9.0 | 0.00 | 0.00 | 0.00 | 67 | 1013.7 |
| 20260903092603 | 60 | 181 | 4.0 | 9.0 | 0.00 | 0.00 | 0.00 | 67 | 1013.6 |
| 20260903092518 | 60 | 184 | 4.0 | 9.0 | 0.00 | 0.00 | 0.00 | 67 | 1013.9 |
| 20260903092503 | 60 | 187 | 4.0 | 9.0 | 0.00 | 0.00 | 0.00 | 67 | 1013.9 |
| 20260903092317 | 60 | 211 | 4.0 | 9.0 | 0.00 | 0.00 | 0.00 | 67 | 1013.6 |
| 20260903092203 | 60 | 203 | 2.0 | 14.0 | 0.00 | 0.00 | 0.00 | 67 | 1013.8 |
| 20260903092003 | 60 | 253 | 4.0 | 14.0 | 0.00 | 0.00 | 0.00 | 67 | 1013.6 |
| 20260903091903 | 60 | 281 | 4.0 | 14.0 | 0.00 | 0.00 | 0.00 | 67 | 1013.8 |
| 20260903091818 | 60 | 319 | 8.0 | 14.0 | 0.00 | 0.00 | 0.00 | 67 | 1013.5 |
| 20260903091803 | 60 | 310 | 8.0 | 14.0 | 0.00 | 0.00 | 0.00 | 67 | 1013.5 |
| 20260903091703 | 60 | 302 | 4.0 | 11.0 | 0.00 | 0.00 | 0.00 | 67 | 1013.6 |
| 20260903091503 | 60 | 324 | 4.0 | 11.0 | 0.00 | 0.00 | 0.00 | 67 | 1013.6 |
| 20260903091403 | 60 | 327 | 4.0 | 11.0 | 0.00 | 0.00 | 0.00 | 67 | 1013.6 |
| 20260903091303 | 60 | 227 | 4.0 | 9.0 | 0.00 | 0.00 | 0.00 | 67 | 1013.4 |
| 20260903091203 | 60 | 184 | 2.0 | 7.0 | 0.00 | 0.00 | 0.00 | 67 | 1013.5 |
| 20260903091103 | 60 | 166 | 3.0 | 7.0 | 0.00 | 0.00 | 0.00 | 67 | 1013.4 |
| 20260903091003 | 60 | 191 | 2.0 | 11.0 | 0.00 | 0.00 | 0.00 | 67 | 1013.4 |
| 20260903090903 | 60 | 173 | 4.0 | 11.0 | 0.00 | 0.00 | 0.00 | 66 | 1013.4 |
| 20260903090803 | 60 | 197 | 4.0 | 11.0 | 0.00 | 0.00 | 0.00 | 66 | 1013.7 |
| 20260903090717 | 60 | 211 | 2.0 | 11.0 | 0.00 | 0.00 | 0.00 | 66 | 1013.5 |
| 20260903090703 | 60 | 216 | 2.0 | 11.0 | 0.00 | 0.00 | 0.00 | 66 | 1013.6 |
| 20260903090603 | 60 | 216 | 4.0 | 11.0 | 0.00 | 0.00 | 0.00 | 66 | 1013.5 |
| 20260903090403 | 60 | 212 | 4.0 | 14.0 | 0.00 | 0.00 | 0.00 | 66 | 1013.3 |
| 20260903090303 | 60 | 189 | 2.0 | 14.0 | 0.00 | 0.00 | 0.00 | 66 | 1013.4 |
| 20260903090217 | 60 | 182 | 4.0 | 14.0 | 0.00 | 0.00 | 0.00 | 66 | 1013.3 |
| 20260903090203 | 60 | 181 | 4.0 | 14.0 | 0.00 | 0.00 | 0.00 | 66 | 1013.3 |
| 20260903090103 | 60 | 168 | 5.0 | 14.0 | 0.00 | 0.00 | 0.00 | 66 | 1013.5 |
| 20260903085903 | 60 | 156 | 5.0 | 11.0 | 0.00 | 0.00 | 0.00 | 66 | 1013.6 |
| 20260903085803 | 60 | 192 | 7.0 | 11.0 | 0.00 | 0.00 | 0.00 | 66 | 1013.3 |
| 20260903085703 | 60 | 182 | 6.0 | 11.0 | 0.00 | 0.00 | 0.00 | 66 | 1013.3 |
| 20260903085617 | 60 | 195 | 4.0 | 9.0 | 0.00 | 0.00 | 0.00 | 66 | 1013.6 |
| 20260903085603 | 60 | 206 | 4.0 | 9.0 | 0.00 | 0.00 | 0.00 | 66 | 1013.6 |
| 20260903085517 | 60 | 212 | 4.0 | 9.0 | 0.00 | 0.00 | 0.00 | 66 | 1013.4 |
| 20260903085503 | 60 | 202 | 4.0 | 9.0 | 0.00 | 0.00 | 0.00 | 66 | 1013.5 |
| 20260903085203 | 60 | 208 | 3.0 | 8.0 | 0.00 | 0.00 | 0.00 | 66 | 1013.4 |
| 20260903085103 | 60 | 217 | 4.0 | 14.0 | 0.00 | 0.00 | 0.00 | 66 | 1013.3 |
| 20260903085003 | 60 | 226 | 3.0 | 14.0 | 0.00 | 0.00 | 0.00 | 66 | 1013.2 |
| 20260903084903 | 60 | 228 | 3.0 | 14.0 | 0.00 | 0.00 | 0.00 | 66 | 1013.3 |
| 20260903084803 | 60 | 227 | 4.0 | 14.0 | 0.00 | 0.00 | 0.00 | 66 | 1013.2 |
| 20260903084703 | 60 | 232 | 6.0 | 14.0 | 0.00 | 0.00 | 0.00 | 66 | 1013.2 |
| 20260903084617 | 60 | 227 | 7.0 | 14.0 | 0.00 | 0.00 | 0.00 | 66 | 1013.3 |
| 20260903084603 | 60 | 218 | 7.0 | 14.0 | 0.00 | 0.00 | 0.00 | 66 | 1013.3 |
| 20260903084517 | 61 | 210 | 4.0 | 9.0 | 0.00 | 0.00 | 0.00 | 66 | 1013.3 |
| 20260903084503 | 61 | 214 | 4.0 | 9.0 | 0.00 | 0.00 | 0.00 | 66 | 1013.3 |
| 20260903084203 | 61 | 227 | 2.0 | 9.0 | 0.00 | 0.00 | 0.00 | 66 | 1013.3 |
| 20260903084103 | 61 | 217 | 5.0 | 9.0 | 0.00 | 0.00 | 0.00 | 66 | 1013.2 |
| 20260903084004 | 61 | 135 | 4.0 | 9.0 | 0.00 | 0.00 | 0.00 | 66 | 1013.2 |
| 20260903083921 | 61 | 152 | 2.0 | 9.0 | 0.00 | 0.00 | 0.00 | 66 | 1013.0 |
| 20260903083903 | 61 | 152 | 2.0 | 9.0 | 0.00 | 0.00 | 0.00 | 66 | 1012.9 |
| 20260903083818 | 61 | 144 | 3.0 | 9.0 | 0.00 | 0.00 | 0.00 | 66 | 1013.1 |
| 20260903083803 | 61 | 151 | 3.0 | 9.0 | 0.00 | 0.00 | 0.00 | 66 | 1013.1 |
| 20260903083503 | 61 | 197 | 4.0 | 8.0 | 0.00 | 0.00 | 0.00 | 65 | 1013.1 |
| 20260903083403 | 61 | 187 | 2.0 | 8.0 | 0.00 | 0.00 | 0.00 | 65 | 1012.9 |
| 20260903083303 | 61 | 175 | 3.0 | 8.0 | 0.00 | 0.00 | 0.00 | 65 | 1013.1 |
| 20260903083203 | 61 | 170 | 2.0 | 8.0 | 0.00 | 0.00 | 0.00 | 65 | 1013.0 |
| 20260903083103 | 61 | 159 | 4.0 | 9.0 | 0.00 | 0.00 | 0.00 | 65 | 1013.3 |
| 20260903083003 | 61 | 164 | 2.0 | 9.0 | 0.00 | 0.00 | 0.00 | 65 | 1012.9 |
| 20260903082903 | 61 | 176 | 2.0 | 9.0 | 0.00 | 0.00 | 0.00 | 65 | 1013.0 |
| 20260903082803 | 61 | 196 | 4.0 | 9.0 | 0.00 | 0.00 | 0.00 | 65 | 1012.8 |
| 20260903082718 | 61 | 234 | 4.0 | 9.0 | 0.00 | 0.00 | 0.00 | 65 | 1013.1 |
| 20260903082703 | 61 | 232 | 5.0 | 11.0 | 0.00 | 0.00 | 0.00 | 65 | 1013.0 |
| 20260903082603 | 61 | 240 | 5.0 | 11.0 | 0.00 | 0.00 | 0.00 | 65 | 1012.9 |
| 20260903082403 | 61 | 209 | 4.0 | 11.0 | 0.00 | 0.00 | 0.00 | 65 | 1012.8 |
| 20260903082316 | 61 | 193 | 3.0 | 11.0 | 0.00 | 0.00 | 0.00 | 65 | 1012.8 |
| 20260903082306 | 61 | 187 | 5.0 | 11.0 | 0.00 | 0.00 | 0.00 | 65 | 1012.9 |
| 20260903082203 | 61 | 173 | 4.0 | 11.0 | 0.00 | 0.00 | 0.00 | 65 | 1012.9 |
| 20260903082120 | 61 | 184 | 3.0 | 11.0 | 0.00 | 0.00 | 0.00 | 65 | 1013.1 |
| 20260903082003 | 61 | 191 | 4.0 | 11.0 | 0.00 | 0.00 | 0.00 | 64 | 1013.1 |
| 20260903081803 | 61 | 214 | 6.0 | 11.0 | 0.00 | 0.00 | 0.00 | 64 | 1012.7 |
| 20260903081703 | 61 | 213 | 4.0 | 11.0 | 0.00 | 0.00 | 0.00 | 64 | 1012.8 |
| 20260903081603 | 61 | 224 | 2.0 | 11.0 | 0.00 | 0.00 | 0.00 | 64 | 1012.8 |
| 20260903081517 | 61 | 210 | 5.0 | 11.0 | 0.00 | 0.00 | 0.00 | 64 | 1012.7 |
| 20260903081503 | 61 | 201 | 6.0 | 11.0 | 0.00 | 0.00 | 0.00 | 64 | 1012.6 |
| 20260903081403 | 62 | 175 | 3.0 | 11.0 | 0.00 | 0.00 | 0.00 | 64 | 1012.7 |
| 20260903081316 | 62 | 183 | 4.0 | 11.0 | 0.00 | 0.00 | 0.00 | 64 | 1012.7 |
| 20260903081203 | 62 | 189 | 4.0 | 11.0 | 0.00 | 0.00 | 0.00 | 64 | 1012.8 |
| 20260903081003 | 62 | 176 | 6.0 | 13.0 | 0.00 | 0.00 | 0.00 | 64 | 1012.6 |
| 20260903080903 | 62 | 175 | 5.0 | 13.0 | 0.00 | 0.00 | 0.00 | 64 | 1012.6 |
| 20260903080803 | 62 | 173 | 5.0 | 13.0 | 0.00 | 0.00 | 0.00 | 63 | 1012.6 |
| 20260903080718 | 62 | 176 | 6.0 | 13.0 | 0.00 | 0.00 | 0.00 | 63 | 1012.6 |
| 20260903080703 | 62 | 174 | 5.0 | 13.0 | 0.00 | 0.00 | 0.00 | 63 | 1012.3 |
| 20260903080603 | 62 | 200 | 5.0 | 11.0 | 0.00 | 0.00 | 0.00 | 63 | 1012.3 |
| 20260903080517 | 62 | 206 | 2.0 | 8.0 | 0.00 | 0.00 | 0.00 | 63 | 1012.5 |
| 20260903080403 | 62 | 196 | 2.0 | 9.0 | 0.00 | 0.00 | 0.00 | 63 | 1012.3 |
| 20260903080203 | 62 | 204 | 3.0 | 13.0 | 0.00 | 0.00 | 0.00 | 63 | 1012.4 |
| 20260903080103 | 62 | 191 | 2.0 | 13.0 | 0.00 | 0.00 | 0.00 | 63 | 1012.0 |
| 20260903080003 | 62 | 173 | 4.0 | 13.0 | 0.00 | 0.00 | 0.00 | 63 | 1012.0 |
| 20260903075903 | 62 | 193 | 5.0 | 13.0 | 0.00 | 0.00 | 0.00 | 63 | 1011.9 |
| 20260903075803 | 62 | 169 | 4.0 | 11.0 | 0.00 | 0.00 | 0.00 | 63 | 1012.3 |
| 20260903075703 | 62 | 140 | 5.0 | 14.0 | 0.00 | 0.00 | 0.00 | 63 | 1012.0 |
| 20260903075603 | 62 | 127 | 3.0 | 14.0 | 0.00 | 0.00 | 0.00 | 63 | 1012.3 |
| 20260903075503 | 62 | 128 | 4.0 | 14.0 | 0.00 | 0.00 | 0.00 | 62 | 1012.0 |
| 20260903075403 | 62 | 132 | 4.0 | 14.0 | 0.00 | 0.00 | 0.00 | 62 | 1012.1 |
| 20260903075318 | 62 | 124 | 4.0 | 14.0 | 0.00 | 0.00 | 0.00 | 62 | 1012.1 |
| 20260903075306 | 62 | 117 | 4.0 | 14.0 | 0.00 | 0.00 | 0.00 | 62 | 1012.1 |
| 20260903075203 | 62 | 171 | 6.0 | 14.0 | 0.00 | 0.00 | 0.00 | 62 | 1012.0 |
| 20260903075118 | 62 | 216 | 4.0 | 14.0 | 0.00 | 0.00 | 0.00 | 62 | 1012.0 |
| 20260903075003 | 62 | 195 | 2.0 | 11.0 | 0.00 | 0.00 | 0.00 | 62 | 1012.0 |
| 20260903074817 | 62 | 198 | 4.0 | 9.0 | 0.00 | 0.00 | 0.00 | 62 | 1011.9 |
| 20260903074809 | 62 | 205 | 4.0 | 9.0 | 0.00 | 0.00 | 0.00 | 62 | 1011.9 |
| 20260903074703 | 62 | 199 | 4.0 | 11.0 | 0.00 | 0.00 | 0.00 | 62 | 1011.6 |
| 20260903074517 | 62 | 151 | 3.0 | 17.0 | 0.00 | 0.00 | 0.00 | 62 | 1011.7 |
| 20260903074503 | 62 | 150 | 3.0 | 17.0 | 0.00 | 0.00 | 0.00 | 62 | 1011.7 |
| 20260903074403 | 62 | 153 | 2.0 | 17.0 | 0.00 | 0.00 | 0.00 | 62 | 1011.6 |
| 20260903074217 | 62 | 156 | 5.0 | 17.0 | 0.00 | 0.00 | 0.00 | 62 | 1011.6 |
| 20260903074203 | 62 | 154 | 5.0 | 17.0 | 0.00 | 0.00 | 0.00 | 62 | 1011.6 |
| 20260903074117 | 62 | 156 | 6.0 | 17.0 | 0.00 | 0.00 | 0.00 | 62 | 1011.7 |
| 20260903074103 | 62 | 164 | 6.0 | 17.0 | 0.00 | 0.00 | 0.00 | 62 | 1011.7 |
| 20260903073919 | 62 | 184 | 4.0 | 9.0 | 0.00 | 0.00 | 0.00 | 62 | 1011.5 |
| 20260903073803 | 62 | 185 | 2.0 | 11.0 | 0.00 | 0.00 | 0.00 | 62 | 1011.6 |
| 20260903073604 | 62 | 129 | 4.0 | 11.0 | 0.00 | 0.00 | 0.00 | 61 | 1011.4 |
| 20260903073517 | 62 | 150 | 4.0 | 11.0 | 0.00 | 0.00 | 0.00 | 62 | 1011.6 |
| 20260903073503 | 62 | 139 | 5.0 | 11.0 | 0.00 | 0.00 | 0.00 | 61 | 1011.4 |
| 20260903073403 | 63 | 154 | 4.0 | 11.0 | 0.00 | 0.00 | 0.00 | 61 | 1011.5 |
| 20260903073318 | 63 | 113 | 4.0 | 11.0 | 0.00 | 0.00 | 0.00 | 61 | 1011.5 |
| 20260903073203 | 63 | 26 | 4.0 | 11.0 | 0.00 | 0.00 | 0.00 | 61 | 1011.3 |
| 20260903073003 | 63 | 72 | 3.0 | 14.0 | 0.00 | 0.00 | 0.00 | 61 | 1011.5 |
| 20260903072903 | 63 | 73 | 3.0 | 15.0 | 0.00 | 0.00 | 0.00 | 61 | 1011.7 |
| 20260903072803 | 63 | 85 | 5.0 | 15.0 | 0.00 | 0.00 | 0.00 | 61 | 1011.3 |
| 20260903072703 | 63 | 105 | 4.0 | 15.0 | 0.00 | 0.00 | 0.00 | 61 | 1011.3 |
| 20260903072603 | 63 | 114 | 4.0 | 15.0 | 0.00 | 0.00 | 0.00 | 61 | 1011.4 |
| 20260903072503 | 63 | 151 | 6.0 | 15.0 | 0.00 | 0.00 | 0.00 | 60 | 1011.4 |
| 20260903072403 | 63 | 163 | 7.0 | 15.0 | 0.00 | 0.00 | 0.00 | 60 | 1011.3 |
| 20260903072306 | 63 | 144 | 4.0 | 13.0 | 0.00 | 0.00 | 0.00 | 61 | 1011.2 |
| 20260903072217 | 63 | 176 | 7.0 | 13.0 | 0.00 | 0.00 | 0.00 | 61 | 1011.4 |
| 20260903072203 | 63 | 175 | 7.0 | 13.0 | 0.00 | 0.00 | 0.00 | 61 | 1011.4 |
| 20260903072117 | 63 | 166 | 4.0 | 13.0 | 0.00 | 0.00 | 0.00 | 61 | 1011.4 |
| 20260903072103 | 63 | 168 | 4.0 | 13.0 | 0.00 | 0.00 | 0.00 | 61 | 1011.4 |
| 20260903071917 | 63 | 137 | 4.0 | 13.0 | 0.00 | 0.00 | 0.00 | 61 | 1011.5 |
| 20260903071803 | 63 | 131 | 4.0 | 13.0 | 0.00 | 0.00 | 0.00 | 61 | 1011.6 |
| 20260903071603 | 63 | 116 | 4.0 | 13.0 | 0.00 | 0.00 | 0.00 | 61 | 1011.5 |
| 20260903071503 | 63 | 167 | 4.0 | 11.0 | 0.00 | 0.00 | 0.00 | 61 | 1011.4 |
| 20260903071403 | 63 | 201 | 2.0 | 11.0 | 0.00 | 0.00 | 0.00 | 61 | 1011.5 |
| 20260903071303 | 63 | 224 | 5.0 | 11.0 | 0.00 | 0.00 | 0.00 | 61 | 1011.4 |
| 20260903071203 | 63 | 248 | 4.0 | 11.0 | 0.00 | 0.00 | 0.00 | 61 | 1011.6 |
| 20260903071103 | 63 | 254 | 4.0 | 11.0 | 0.00 | 0.00 | 0.00 | 61 | 1011.3 |
| 20260903071003 | 63 | 212 | 5.0 | 11.0 | 0.00 | 0.00 | 0.00 | 61 | 1011.5 |
| 20260903070903 | 63 | 141 | 2.0 | 11.0 | 0.00 | 0.00 | 0.00 | 61 | 1011.7 |
| 20260903070803 | 63 | 137 | 4.0 | 11.0 | 0.00 | 0.00 | 0.00 | 61 | 1011.4 |
| 20260903070718 | 63 | 144 | 2.0 | 11.0 | 0.00 | 0.00 | 0.00 | 61 | 1011.6 |
| 20260903070703 | 63 | 142 | 3.0 | 11.0 | 0.00 | 0.00 | 0.00 | 61 | 1011.6 |
| 20260903070603 | 63 | 123 | 5.0 | 11.0 | 0.00 | 0.00 | 0.00 | 61 | 1011.4 |
| 20260903070403 | 63 | 126 | 3.0 | 14.0 | 0.00 | 0.00 | 0.00 | 61 | 1011.6 |
| 20260903070303 | 63 | 146 | 2.0 | 14.0 | 0.00 | 0.00 | 0.00 | 61 | 1011.2 |
| 20260903070203 | 63 | 119 | 2.0 | 14.0 | 0.00 | 0.00 | 0.00 | 61 | 1011.4 |
| 20260903070117 | 63 | 143 | 2.0 | 14.0 | 0.00 | 0.00 | 0.00 | 61 | 1011.4 |
| 20260903070103 | 63 | 170 | 2.0 | 14.0 | 0.00 | 0.00 | 0.00 | 61 | 1011.4 |
| 20260903070008 | 63 | 95 | 4.0 | 14.0 | 0.00 | 0.00 | 0.00 | 60 | 1011.4 |
| 20260903065803 | 63 | 88 | 4.0 | 13.0 | 0.00 | 0.00 | 0.00 | 61 | 1011.4 |
| 20260903065703 | 63 | 99 | 4.0 | 13.0 | 0.00 | 0.00 | 0.00 | 61 | 1011.5 |
| 20260903065603 | 63 | 81 | 4.0 | 13.0 | 0.00 | 0.00 | 0.00 | 61 | 1011.4 |
| 20260903065503 | 63 | 94 | 6.0 | 13.0 | 0.00 | 0.00 | 0.00 | 61 | 1011.6 |
| 20260903065403 | 63 | 101 | 5.0 | 13.0 | 0.00 | 0.00 | 0.00 | 60 | 1011.5 |
| 20260903065306 | 63 | 140 | 6.0 | 13.0 | 0.00 | 0.00 | 0.00 | 61 | 1011.6 |
| 20260903065203 | 63 | 163 | 2.0 | 11.0 | 0.00 | 0.00 | 0.00 | 61 | 1011.5 |
| 20260903065103 | 63 | 207 | 5.0 | 11.0 | 0.00 | 0.00 | 0.00 | 61 | 1011.5 |
| 20260903065018 | 63 | 230 | 2.0 | 11.0 | 0.00 | 0.00 | 0.00 | 61 | 1011.7 |
| 20260903065003 | 63 | 238 | 2.0 | 11.0 | 0.00 | 0.00 | 0.00 | 61 | 1011.7 |
| 20260903064903 | 63 | 247 | 5.0 | 11.0 | 0.00 | 0.00 | 0.00 | 61 | 1011.7 |
| 20260903064703 | 63 | 213 | 5.0 | 11.0 | 0.00 | 0.00 | 0.00 | 62 | 1011.8 |
| 20260903064603 | 63 | 159 | 3.0 | 11.0 | 0.00 | 0.00 | 0.00 | 62 | 1011.6 |
| 20260903064503 | 63 | 162 | 4.0 | 11.0 | 0.00 | 0.00 | 0.00 | 62 | 1011.5 |
| 20260903064403 | 63 | 213 | 3.0 | 11.0 | 0.00 | 0.00 | 0.00 | 62 | 1011.7 |
| 20260903064318 | 63 | 60 | 4.0 | 11.0 | 0.00 | 0.00 | 0.00 | 62 | 1011.8 |
| 20260903064303 | 63 | 42 | 4.0 | 14.0 | 0.00 | 0.00 | 0.00 | 62 | 1011.7 |
| 20260903064203 | 63 | 286 | 4.0 | 14.0 | 0.00 | 0.00 | 0.00 | 62 | 1011.9 |
| 20260903064003 | 63 | 177 | 5.0 | 14.0 | 0.00 | 0.00 | 0.00 | 62 | 1011.8 |
| 20260903063903 | 63 | 171 | 4.0 | 14.0 | 0.00 | 0.00 | 0.00 | 62 | 1011.8 |
| 20260903063803 | 63 | 200 | 6.0 | 14.0 | 0.00 | 0.00 | 0.00 | 62 | 1011.8 |
| 20260903063717 | 63 | 202 | 2.0 | 13.0 | 0.00 | 0.00 | 0.00 | 62 | 1011.8 |
| 20260903063703 | 63 | 201 | 2.0 | 13.0 | 0.00 | 0.00 | 0.00 | 62 | 1011.8 |
| 20260903063603 | 63 | 199 | 4.0 | 13.0 | 0.00 | 0.00 | 0.00 | 62 | 1011.7 |
| 20260903063417 | 63 | 209 | 4.0 | 11.0 | 0.00 | 0.00 | 0.00 | 62 | 1011.8 |
| 20260903063403 | 63 | 217 | 4.0 | 11.0 | 0.00 | 0.00 | 0.00 | 62 | 1011.8 |
| 20260903063303 | 64 | 204 | 6.0 | 11.0 | 0.00 | 0.00 | 0.00 | 62 | 1011.6 |
| 20260903063103 | 64 | 187 | 2.0 | 11.0 | 0.00 | 0.00 | 0.00 | 62 | 1011.8 |
| 20260903063003 | 64 | 167 | 4.0 | 11.0 | 0.00 | 0.00 | 0.00 | 62 | 1011.8 |
| 20260903062903 | 64 | 143 | 4.0 | 11.0 | 0.00 | 0.00 | 0.00 | 61 | 1011.6 |
| 20260903062803 | 64 | 141 | 3.0 | 11.0 | 0.00 | 0.00 | 0.00 | 62 | 1011.5 |
| 20260903062703 | 64 | 139 | 3.0 | 11.0 | 0.00 | 0.00 | 0.00 | 61 | 1011.7 |
| 20260903062603 | 64 | 131 | 4.0 | 11.0 | 0.00 | 0.00 | 0.00 | 61 | 1011.7 |
| 20260903062503 | 64 | 119 | 4.0 | 11.0 | 0.00 | 0.00 | 0.00 | 61 | 1011.7 |
| 20260903062417 | 64 | 113 | 4.0 | 13.0 | 0.00 | 0.00 | 0.00 | 61 | 1011.7 |
| 20260903062403 | 64 | 112 | 4.0 | 13.0 | 0.00 | 0.00 | 0.00 | 61 | 1011.7 |
| 20260903062306 | 64 | 131 | 6.0 | 15.0 | 0.00 | 0.00 | 0.00 | 61 | 1011.7 |
| 20260903062117 | 64 | 130 | 4.0 | 15.0 | 0.00 | 0.00 | 0.00 | 61 | 1011.6 |
| 20260903062103 | 64 | 162 | 4.0 | 15.0 | 0.00 | 0.00 | 0.00 | 61 | 1011.6 |
| 20260903062003 | 64 | 180 | 4.0 | 15.0 | 0.00 | 0.00 | 0.00 | 61 | 1011.6 |
| 20260903061803 | 64 | 198 | 4.0 | 13.0 | 0.00 | 0.00 | 0.00 | 60 | 1011.5 |
| 20260903061703 | 64 | 189 | 4.0 | 13.0 | 0.00 | 0.00 | 0.00 | 60 | 1011.5 |
| 20260903061618 | 64 | 174 | 4.0 | 13.0 | 0.00 | 0.00 | 0.00 | 60 | 1011.8 |
| 20260903061603 | 64 | 166 | 4.0 | 13.0 | 0.00 | 0.00 | 0.00 | 60 | 1011.8 |
| 20260903061503 | 64 | 129 | 5.0 | 13.0 | 0.00 | 0.00 | 0.00 | 60 | 1011.8 |
| 20260903061318 | 64 | 117 | 3.0 | 13.0 | 0.00 | 0.00 | 0.00 | 60 | 1011.3 |
| 20260903061303 | 64 | 125 | 3.0 | 13.0 | 0.00 | 0.00 | 0.00 | 60 | 1011.3 |
| 20260903061203 | 64 | 165 | 4.0 | 15.0 | 0.00 | 0.00 | 0.00 | 60 | 1011.6 |
| 20260903061003 | 64 | 190 | 2.0 | 15.0 | 0.00 | 0.00 | 0.00 | 60 | 1011.8 |
| 20260903060903 | 64 | 166 | 3.0 | 15.0 | 0.00 | 0.00 | 0.00 | 60 | 1011.5 |
| 20260903060803 | 64 | 182 | 5.0 | 15.0 | 0.00 | 0.00 | 0.00 | 59 | 1011.7 |
| 20260903060717 | 64 | 165 | 7.0 | 15.0 | 0.00 | 0.00 | 0.00 | 60 | 1011.8 |
| 20260903060703 | 64 | 164 | 3.0 | 14.0 | 0.00 | 0.00 | 0.00 | 60 | 1011.7 |
| 20260903060603 | 64 | 174 | 4.0 | 14.0 | 0.00 | 0.00 | 0.00 | 60 | 1011.8 |
| 20260903060403 | 64 | 173 | 4.0 | 14.0 | 0.00 | 0.00 | 0.00 | 60 | 1011.5 |
| 20260903060303 | 64 | 153 | 7.0 | 14.0 | 0.00 | 0.00 | 0.00 | 59 | 1011.6 |
| 20260903060218 | 64 | 155 | 4.0 | 13.0 | 0.00 | 0.00 | 0.00 | 59 | 1011.7 |
| 20260903060203 | 64 | 157 | 4.0 | 13.0 | 0.00 | 0.00 | 0.00 | 59 | 1011.7 |
| 20260903060103 | 64 | 137 | 5.0 | 14.0 | 0.00 | 0.00 | 0.00 | 59 | 1011.7 |
| 20260903055903 | 64 | 201 | 6.0 | 16.0 | 0.00 | 0.00 | 0.00 | 60 | 1011.7 |
| 20260903055803 | 64 | 215 | 6.0 | 16.0 | 0.00 | 0.00 | 0.00 | 60 | 1011.7 |
| 20260903055703 | 65 | 208 | 5.0 | 16.0 | 0.00 | 0.00 | 0.00 | 60 | 1011.7 |
| 20260903055603 | 65 | 209 | 4.0 | 16.0 | 0.00 | 0.00 | 0.00 | 60 | 1011.7 |
| 20260903055503 | 65 | 198 | 8.0 | 16.0 | 0.00 | 0.00 | 0.00 | 60 | 1011.5 |
| 20260903055403 | 65 | 169 | 8.0 | 14.0 | 0.00 | 0.00 | 0.00 | 60 | 1011.4 |
| 20260903055306 | 65 | 151 | 8.0 | 14.0 | 0.00 | 0.00 | 0.00 | 61 | 1011.7 |
| 20260903055203 | 65 | 153 | 6.0 | 14.0 | 0.00 | 0.00 | 0.00 | 61 | 1011.4 |
| 20260903055103 | 65 | 124 | 4.0 | 13.0 | 0.00 | 0.00 | 0.00 | 61 | 1011.2 |
| 20260903055003 | 65 | 142 | 7.0 | 13.0 | 0.00 | 0.00 | 0.00 | 62 | 1011.3 |
| 20260903054903 | 65 | 152 | 5.0 | 13.0 | 0.00 | 0.00 | 0.00 | 62 | 1011.4 |
| 20260903054803 | 65 | 176 | 4.0 | 13.0 | 0.00 | 0.00 | 0.00 | 62 | 1011.3 |
| 20260903054704 | 65 | 169 | 8.0 | 20.0 | 0.00 | 0.00 | 0.00 | 63 | 1011.2 |
| 20260903054603 | 65 | 186 | 4.0 | 20.0 | 0.00 | 0.00 | 0.00 | 63 | 1011.3 |
| 20260903054503 | 65 | 183 | 4.0 | 20.0 | 0.00 | 0.00 | 0.00 | 64 | 1011.3 |
| 20260903054403 | 65 | 187 | 4.0 | 20.0 | 0.00 | 0.00 | 0.00 | 64 | 1011.1 |
| 20260903054303 | 65 | 175 | 8.0 | 20.0 | 0.00 | 0.00 | 0.00 | 64 | 1011.1 |
| 20260903054218 | 65 | 171 | 10.0 | 20.0 | 0.00 | 0.00 | 0.00 | 64 | 1011.2 |
| 20260903054203 | 65 | 168 | 10.0 | 20.0 | 0.00 | 0.00 | 0.00 | 64 | 1011.2 |
| 20260903054117 | 65 | 162 | 4.0 | 13.0 | 0.00 | 0.00 | 0.00 | 66 | 1010.9 |
| 20260903054103 | 65 | 161 | 4.0 | 13.0 | 0.00 | 0.00 | 0.00 | 66 | 1010.9 |
| 20260903054017 | 65 | 169 | 4.0 | 13.0 | 0.00 | 0.00 | 0.00 | 66 | 1011.2 |
| 20260903053704 | 64 | 170 | 4.0 | 13.0 | 0.00 | 0.00 | 0.00 | 69 | 1011.2 |
| 20260903053603 | 64 | 158 | 5.0 | 13.0 | 0.00 | 0.00 | 0.00 | 69 | 1011.4 |
| 20260903053503 | 64 | 159 | 4.0 | 13.0 | 0.00 | 0.00 | 0.00 | 71 | 1011.1 |
| 20260903053403 | 64 | 189 | 4.0 | 13.0 | 0.00 | 0.00 | 0.00 | 72 | 1011.1 |
| 20260903053303 | 64 | 199 | 6.0 | 13.0 | 0.00 | 0.00 | 0.00 | 73 | 1011.2 |
| 20260903053203 | 64 | 219 | 5.0 | 11.0 | 0.00 | 0.00 | 0.00 | 74 | 1011.1 |
| 20260903053103 | 64 | 231 | 4.0 | 11.0 | 0.00 | 0.00 | 0.00 | 76 | 1011.2 |
| 20260903053003 | 64 | 225 | 4.0 | 11.0 | 0.00 | 0.00 | 0.00 | 77 | 1011.0 |
| 20260903052903 | 64 | 221 | 5.0 | 11.0 | 0.00 | 0.00 | 0.00 | 77 | 1011.2 |
| 20260903052803 | 64 | 216 | 4.0 | 11.0 | 0.00 | 0.00 | 0.00 | 78 | 1011.3 |
| 20260903052703 | 64 | 205 | 4.0 | 14.0 | 0.00 | 0.00 | 0.00 | 79 | 1011.0 |
| 20260903052618 | 64 | 202 | 5.0 | 14.0 | 0.00 | 0.00 | 0.00 | 80 | 1011.2 |
| 20260903052503 | 64 | 211 | 6.0 | 14.0 | 0.00 | 0.00 | 0.00 | 80 | 1011.1 |
| 20260903052306 | 64 | 196 | 6.0 | 14.0 | 0.00 | 0.00 | 0.00 | 81 | 1011.3 |
| 20260903052208 | 64 | 197 | 6.0 | 14.0 | 0.00 | 0.00 | 0.00 | 82 | 1011.3 |
| 20260903052103 | 64 | 211 | 6.0 | 11.0 | 0.00 | 0.00 | 0.00 | 82 | 1011.1 |
| 20260903051903 | 65 | 236 | 4.0 | 11.0 | 0.00 | 0.00 | 0.00 | 83 | 1011.2 |
| 20260903051803 | 65 | 262 | 5.0 | 11.0 | 0.00 | 0.00 | 0.00 | 83 | 1011.1 |
| 20260903051703 | 65 | 265 | 5.0 | 11.0 | 0.00 | 0.00 | 0.00 | 83 | 1011.2 |
| 20260903051603 | 65 | 264 | 3.0 | 11.0 | 0.00 | 0.00 | 0.00 | 83 | 1011.2 |
| 20260903051518 | 65 | 264 | 4.0 | 11.0 | 0.00 | 0.00 | 0.00 | 83 | 1011.0 |
| 20260903051503 | 65 | 257 | 4.0 | 11.0 | 0.00 | 0.00 | 0.00 | 83 | 1010.9 |
| 20260903051403 | 65 | 251 | 6.0 | 11.0 | 0.00 | 0.00 | 0.00 | 83 | 1011.0 |
| 20260903051317 | 65 | 231 | 6.0 | 11.0 | 0.00 | 0.00 | 0.00 | 83 | 1010.8 |
| 20260903051204 | 65 | 230 | 4.0 | 9.0 | 0.00 | 0.00 | 0.00 | 83 | 1011.1 |
| 20260903051116 | 65 | 240 | 4.0 | 8.0 | 0.00 | 0.00 | 0.00 | 83 | 1010.7 |
| 20260903051003 | 65 | 238 | 4.0 | 11.0 | 0.00 | 0.00 | 0.00 | 83 | 1010.7 |
| 20260903050804 | 65 | 250 | 3.0 | 11.0 | 0.00 | 0.00 | 0.00 | 83 | 1010.9 |
| 20260903050703 | 65 | 247 | 4.0 | 11.0 | 0.00 | 0.00 | 0.00 | 83 | 1010.7 |
| 20260903050603 | 65 | 239 | 4.0 | 11.0 | 0.00 | 0.00 | 0.00 | 84 | 1010.8 |
| 20260903050503 | 65 | 222 | 5.0 | 11.0 | 0.00 | 0.00 | 0.00 | 84 | 1010.6 |
| 20260903050403 | 65 | 207 | 4.0 | 8.0 | 0.00 | 0.00 | 0.00 | 84 | 1010.8 |
| 20260903050303 | 66 | 221 | 2.0 | 6.0 | 0.00 | 0.00 | 0.00 | 85 | 1010.9 |
| 20260903050203 | 66 | 218 | 2.0 | 6.0 | 0.00 | 0.00 | 0.00 | 85 | 1010.8 |
| 20260903050003 | 66 | 227 | 3.0 | 6.0 | 0.00 | 0.00 | 0.00 | 85 | 1010.5 |
| 20260903045903 | 66 | 240 | 2.0 | 6.0 | 0.00 | 0.00 | 0.00 | 85 | 1010.7 |
| 20260903045803 | 66 | 239 | 2.0 | 6.0 | 0.00 | 0.00 | 0.00 | 85 | 1010.4 |
| 20260903045703 | 66 | 237 | 2.0 | 6.0 | 0.00 | 0.00 | 0.00 | 86 | 1010.5 |
| 20260903045518 | 66 | 220 | 2.0 | 6.0 | 0.00 | 0.00 | 0.00 | 86 | 1010.8 |
| 20260903045503 | 66 | 219 | 2.0 | 8.0 | 0.00 | 0.00 | 0.00 | 86 | 1010.4 |
| 20260903045403 | 66 | 215 | 3.0 | 8.0 | 0.00 | 0.00 | 0.00 | 86 | 1010.7 |
| 20260903045319 | 66 | 214 | 3.0 | 8.0 | 0.00 | 0.00 | 0.00 | 86 | 1010.5 |
| 20260903045203 | 66 | 219 | 2.0 | 8.0 | 0.00 | 0.00 | 0.00 | 86 | 1010.6 |
| 20260903045005 | 66 | 235 | 2.0 | 8.0 | 0.00 | 0.00 | 0.00 | 86 | 1010.9 |
| 20260903044905 | 66 | 234 | 2.0 | 4.0 | 0.00 | 0.00 | 0.00 | 87 | 1011.2 |
| 20260903044803 | 66 | 233 | 2.0 | 9.0 | 0.00 | 0.00 | 0.00 | 87 | 1010.8 |
| 20260903044703 | 66 | 249 | 2.0 | 17.0 | 0.00 | 0.00 | 0.00 | 87 | 1011.0 |
| 20260903044606 | 65 | 245 | 2.0 | 17.0 | 0.00 | 0.00 | 0.00 | 87 | 1010.8 |
| 20260903044518 | 65 | 244 | 3.0 | 17.0 | 0.00 | 0.00 | 0.00 | 87 | 1010.7 |
| 20260903044503 | 65 | 246 | 3.0 | 17.0 | 0.00 | 0.00 | 0.00 | 87 | 1010.7 |
| 20260903044403 | 65 | 240 | 2.0 | 17.0 | 0.00 | 0.00 | 0.00 | 88 | 1010.8 |
| 20260903044203 | 65 | 235 | 8.0 | 17.0 | 0.00 | 0.00 | 0.00 | 89 | 1011.2 |
| 20260903044103 | 65 | 235 | 4.0 | 11.0 | 0.00 | 0.00 | 0.00 | 89 | 1011.1 |
| 20260903044003 | 65 | 235 | 7.0 | 11.0 | 0.00 | 0.00 | 0.00 | 89 | 1011.3 |
| 20260903043903 | 65 | 247 | 5.0 | 8.0 | 0.00 | 0.00 | 0.00 | 90 | 1011.0 |
| 20260903043803 | 65 | 243 | 4.0 | 6.0 | 0.00 | 0.00 | 0.00 | 90 | 1010.9 |
| 20260903043703 | 65 | 225 | 2.0 | 4.0 | 0.00 | 0.00 | 0.00 | 90 | 1010.4 |
| 20260903043603 | 65 | 225 | 1.0 | 2.0 | 0.00 | 0.00 | 0.00 | 90 | 1010.2 |
| 20260903043503 | 65 | 0 | 0.0 | 0.0 | 0.00 | 0.00 | 0.00 | 90 | 1009.8 |
| 20260903043403 | 65 | 0 | 0.0 | 0.0 | 0.00 | 0.00 | 0.00 | 90 | 1009.9 |
| 20260903043303 | 65 | 0 | 0.0 | 0.0 | 0.00 | 0.00 | 0.00 | 90 | 1009.9 |
| 20260903043203 | 65 | 0 | 0.0 | 0.0 | 0.00 | 0.00 | 0.00 | 90 | 1010.0 |
| 20260903043103 | 65 | 0 | 0.0 | 0.0 | 0.00 | 0.00 | 0.00 | 90 | 1009.9 |
| 20260903043003 | 65 | 0 | 0.0 | 0.0 | 0.00 | 0.00 | 0.00 | 90 | 1009.9 |
| 20260903042903 | 65 | 0 | 0.0 | 0.0 | 0.00 | 0.00 | 0.00 | 89 | 1009.9 |
| 20260903042818 | 65 | 0 | 0.0 | 0.0 | 0.00 | 0.00 | 0.00 | 90 | 1010.0 |
| 20260903042703 | 65 | 0 | 0.0 | 0.0 | 0.00 | 0.00 | 0.00 | 89 | 1009.8 |
| 20260903042503 | 65 | 0 | 0.0 | 0.0 | 0.00 | 0.00 | 0.00 | 89 | 1010.0 |
| 20260903042403 | 65 | 0 | 0.0 | 0.0 | 0.00 | 0.00 | 0.00 | 89 | 1010.0 |
| 20260903042306 | 65 | 0 | 0.0 | 0.0 | 0.00 | 0.00 | 0.00 | 89 | 1010.0 |
| 20260903042203 | 65 | 0 | 0.0 | 0.0 | 0.00 | 0.00 | 0.00 | 89 | 1010.1 |
| 20260903042103 | 65 | 0 | 0.0 | 0.0 | 0.00 | 0.00 | 0.00 | 89 | 1010.1 |
| 20260903042003 | 65 | 0 | 0.0 | 0.0 | 0.00 | 0.00 | 0.00 | 89 | 1010.0 |
| 20260903041903 | 65 | 0 | 0.0 | 0.0 | 0.00 | 0.00 | 0.00 | 89 | 1009.9 |
| 20260903041703 | 65 | 0 | 0.0 | 0.0 | 0.00 | 0.00 | 0.00 | 89 | 1010.2 |
| 20260903041603 | 65 | 0 | 0.0 | 0.0 | 0.00 | 0.00 | 0.00 | 89 | 1010.0 |
| 20260903041503 | 65 | 0 | 0.0 | 0.0 | 0.00 | 0.00 | 0.00 | 89 | 1009.9 |
| 20260903041303 | 65 | 0 | 0.0 | 0.0 | 0.00 | 0.00 | 0.00 | 89 | 1010.0 |
| 20260903041203 | 65 | 0 | 0.0 | 0.0 | 0.00 | 0.00 | 0.00 | 89 | 1009.7 |
| 20260903041118 | 65 | 0 | 0.0 | 0.0 | 0.00 | 0.00 | 0.00 | 89 | 1009.9 |
| 20260903041103 | 65 | 0 | 0.0 | 0.0 | 0.00 | 0.00 | 0.00 | 89 | 1009.8 |
| 20260903041003 | 65 | 0 | 0.0 | 0.0 | 0.00 | 0.00 | 0.00 | 89 | 1009.8 |
| 20260903040917 | 65 | 0 | 0.0 | 0.0 | 0.00 | 0.00 | 0.00 | 89 | 1009.8 |
| 20260903040603 | 65 | 0 | 0.0 | 0.0 | 0.00 | 0.00 | 0.00 | 89 | 1009.9 |
| 20260903040503 | 65 | 0 | 0.0 | 0.0 | 0.00 | 0.00 | 0.00 | 89 | 1010.0 |
| 20260903040403 | 65 | 90 | 0.0 | 2.0 | 0.00 | 0.00 | 0.00 | 89 | 1009.9 |